GFSCGP_850_rhum_000.txt.gz
RH
10 12 18 16 13 11 10 9 9 12 12 12 11 12 12 12 12 13 13 14 14 24 34 36 40 37 36 38 39 38 57 44 47 52 47 42 41 42 46 48 51 48 48 49
9 16 14 12 11 12 11 12 12 12 12 12 13 12 13 14 15 15 16 18 26 29 32 36 40 43 43 46 53 54 54 50 42 41 45 45 45 44 46 49 47 50 53 54
19 17 14 13 15 16 14 15 22 19 15 13 13 15 16 15 16 18 20 21 24 27 32 37 45 50 51 49 46 46 48 47 45 45 47 47 45 44 44 44 48 53 55 60
17 15 16 16 19 20 19 20 20 18 18 19 12 20 18 17 19 20 22 23 23 24 26 32 43 52 52 49 48 50 50 47 38 38 37 40 48 53 57 55 63 54 58 51
20 20 20 21 22 20 24 21 20 20 20 18 16 20 22 17 21 23 24 26 27 30 33 38 44 51 56 55 53 52 49 50 46 47 52 61 66 64 53 50 55 54 53 52
19 18 21 22 20 19 20 22 21 21 23 42 19 22 37 23 23 24 26 29 31 31 36 39 44 50 56 57 55 53 44 48 48 55 62 59 49 48 55 57 56 55 54 46
20 22 21 20 24 21 19 23 42 52 53 49 24 22 32 24 23 24 26 29 35 37 37 37 40 45 50 52 53 54 55 53 49 48 51 53 56 58 58 58 59 57 46 60
24 38 23 20 24 25 24 25 52 54 59 40 20 20 31 24 25 26 27 29 32 37 40 41 42 46 48 50 51 54 58 58 54 54 58 58 59 60 61 61 59 53 63 63
29 32 22 22 21 21 28 34 22 41 50 54 23 28 26 23 24 24 26 28 29 33 36 38 40 44 46 49 48 51 54 61 59 59 60 59 58 62 68 62 59 61 65 68
23 36 22 20 23 24 24 21 37 44 60 51 28 26 43 30 26 23 23 24 26 31 35 41 40 41 44 48 52 56 58 63 67 62 58 57 62 65 64 62 61 64 70 72
24 30 28 24 29 29 28 30 28 24 41 52 52 31 21 25 24 25 26 27 29 32 35 39 42 46 50 54 56 58 61 66 68 68 70 67 65 62 63 61 64 72 76 61
28 33 55 25 24 23 24 27 26 60 48 63 66 48 22 24 29 29 30 34 35 40 44 46 51 53 54 57 59 66 69 74 75 72 76 69 64 61 64 68 75 69 73 83
34 43 55 36 35 27 26 26 25 41 57 56 81 52 24 39 31 28 28 35 42 45 46 49 56 58 56 57 60 62 67 71 70 74 77 71 65 64 68 70 66 71 68 66
44 30 41 48 29 23 27 23 22 25 63 55 54 36 29 32 33 30 31 40 44 45 54 58 61 61 57 57 57 55 55 56 65 75 73 70 73 67 62 60 61 61 60 54
35 51 43 36 27 24 24 24 24 25 30 45 39 31 27 30 31 44 48 49 50 57 60 63 65 60 56 53 50 47 46 49 60 70 79 61 66 65 62 63 63 59 50 45
41 75 78 64 28 27 34 28 26 24 23 26 29 31 26 41 44 49 53 56 61 62 64 60 61 54 49 47 40 36 37 40 53 65 66 68 78 68 67 71 64 58 46 44
80 86 71 73 58 67 80 58 29 26 24 29 46 34 37 45 47 47 56 62 64 62 61 63 53 46 42 37 34 33 33 34 41 47 51 65 86 82 75 80 71 60 49 44
97 91 92 91 89 82 36 25 26 30 26 26 26 35 45 51 53 51 68 70 63 66 64 53 41 38 39 37 33 32 34 36 38 40 45 73 75 72 79 75 79 68 49 46
62 87 91 98 67 50 41 35 39 44 46 32 44 50 54 57 54 54 63 64 62 57 45 36 35 37 34 32 34 37 39 40 41 41 53 69 77 75 65 78 74 62 46 48
64 94 87 93 92 76 46 32 37 38 61 52 60 64 67 60 78 58 63 61 49 39 35 33 34 31 30 33 36 37 41 41 44 62 67 82 82 75 78 81 68 49 48 54
90 82 88 86 86 72 37 34 41 66 75 71 79 72 71 66 73 71 55 47 38 36 34 32 28 29 32 36 38 41 43 44 61 83 84 84 91 80 71 65 48 48 51 55
82 93 94 87 86 85 42 39 68 68 71 79 76 76 76 73 77 50 45 40 36 34 32 29 30 31 35 38 41 46 48 53 76 78 87 86 79 66 65 51 50 52 53 60
55 65 71 69 72 43 46 52 62 72 81 77 78 77 71 68 56 47 41 37 36 34 30 32 33 36 37 42 45 51 57 63 77 73 80 78 66 64 59 55 51 55 59 66
35 29 74 65 44 39 44 52 81 85 83 76 76 75 71 54 49 42 39 37 34 33 35 36 39 39 40 44 50 58 67 72 77 81 82 77 67 61 57 61 60 61 66 66
58 39 47 52 43 42 61 77 81 83 76 79 75 70 51 47 43 40 37 36 36 37 38 40 39 40 48 50 57 71 78 77 86 85 84 66 70 74 74 71 70 73 78 78
49 46 64 73 53 65 72 82 78 79 78 71 68 52 47 45 41 36 38 39 38 39 39 40 44 51 56 62 70 78 89 73 80 80 67 77 81 76 75 81 79 80 81 86

GFSCGP_850_rhum_003.txt.gz
RH
14 26 26 17 14 13 14 15 21 18 13 13 14 19 19 20 18 23 42 42 40 42 43 43 42 39 38 39 54 58 49 48 48 51 52 52 48 44 44 42 39 35 41 41
16 25 16 15 14 16 13 19 26 17 14 13 14 19 22 22 25 28 35 36 38 42 46 47 46 50 50 51 53 56 52 44 48 51 48 46 43 39 34 34 40 46 52 53
27 18 14 15 24 24 23 27 26 23 19 16 16 23 25 23 24 25 27 30 31 36 41 43 49 48 45 45 46 47 48 48 46 45 40 36 35 41 44 47 52 58 48 46
21 16 19 19 25 25 32 27 25 23 25 29 18 36 27 28 31 30 30 32 35 43 44 44 40 43 48 49 47 46 44 41 37 36 39 42 50 53 59 63 55 50 48 50
24 27 29 29 25 23 30 23 25 24 28 26 26 38 28 28 36 35 30 29 33 37 41 45 44 46 47 45 41 38 41 44 46 45 46 47 58 48 45 50 54 55 55 54
22 21 24 25 22 20 22 28 31 29 35 57 34 41 53 48 36 36 33 33 34 34 37 40 45 49 48 45 44 47 50 50 48 47 46 47 48 50 54 53 54 55 55 50
26 28 23 21 29 25 28 38 70 64 78 66 40 40 61 37 31 34 40 38 37 40 40 44 48 48 48 49 50 52 53 51 49 49 50 50 52 53 56 57 56 53 44 42
40 53 28 25 28 28 34 35 68 62 82 57 26 45 45 32 28 28 29 30 34 38 40 41 41 45 46 46 49 50 51 52 55 55 52 53 53 56 59 67 80 53 56 64
47 38 26 23 22 27 34 43 24 57 64 68 45 38 32 30 30 27 27 27 37 39 40 40 45 55 53 50 52 55 56 58 60 57 55 54 55 62 83 81 62 61 71 65
28 42 25 21 24 25 29 23 53 63 61 61 45 49 61 44 41 30 29 32 33 38 42 46 50 50 51 52 53 56 59 60 64 65 65 67 72 74 82 66 63 68 68 76
40 46 33 25 35 38 37 39 36 38 62 74 81 52 39 41 39 40 35 40 43 44 45 47 50 53 54 54 55 57 58 61 65 66 63 57 65 65 61 61 64 65 66 59
32 50 65 35 26 24 26 34 42 76 63 83 86 62 40 41 34 32 40 41 43 44 47 52 56 57 58 58 56 54 56 59 54 52 52 65 72 66 62 56 66 63 47 56
45 56 74 55 44 34 29 28 47 63 68 58 83 74 38 39 36 35 44 43 45 48 55 59 60 57 60 59 55 53 50 46 42 43 57 69 76 82 84 73 66 59 60 61
47 44 52 71 40 34 30 28 32 57 84 70 72 49 38 52 50 52 51 50 55 59 62 61 59 60 58 50 46 42 37 32 34 34 56 54 54 75 74 67 77 80 72 58
51 70 61 48 39 35 30 31 31 32 43 59 51 48 57 57 55 54 56 61 62 64 63 63 57 53 48 41 38 35 32 31 29 29 36 50 61 72 73 85 81 91 71 46
70 90 74 58 51 51 48 45 42 36 33 34 34 55 50 48 51 56 64 67 65 65 63 60 56 47 40 40 39 35 33 32 34 34 35 42 49 63 79 92 98 70 59 46
90 95 89 87 78 84 73 47 46 34 34 32 49 54 58 61 62 72 70 65 65 62 55 49 48 37 39 35 34 33 34 35 33 35 40 59 74 70 71 74 94 69 69 54
97 94 96 92 85 71 54 36 36 43 43 48 58 62 62 59 69 68 66 62 59 56 46 41 36 35 32 31 32 35 35 34 38 41 48 57 67 66 72 78 96 74 66 50
75 94 95 95 94 62 49 38 44 49 58 64 73 71 65 62 57 67 64 56 53 44 39 36 34 30 30 31 32 34 37 42 45 51 56 64 75 82 91 94 87 72 53 45
87 91 91 97 94 79 60 44 40 42 78 74 72 76 72 65 92 76 56 54 47 39 37 35 32 30 31 32 36 40 44 48 52 54 59 70 68 84 91 75 70 54 47 48
98 92 93 98 87 80 61 40 40 76 72 84 80 77 74 78 73 70 62 49 42 38 36 35 31 33 36 38 39 46 50 54 58 60 64 65 75 79 68 69 54 47 48 53
87 96 92 90 87 87 43 45 60 69 79 78 82 77 79 74 68 64 47 45 39 38 34 33 35 36 38 40 45 48 53 59 61 64 71 77 72 70 64 61 57 56 54 57
72 83 91 81 81 49 45 45 65 69 78 86 79 75 72 67 64 49 47 40 37 36 37 38 40 39 40 44 47 54 58 61 66 67 70 80 77 71 69 62 60 60 59 63
51 48 78 68 53 46 54 60 61 68 78 81 76 74 63 67 49 44 40 37 39 38 38 38 39 42 46 48 55 62 66 70 68 67 68 69 71 64 70 70 65 66 71 74
63 55 55 68 53 58 70 70 81 84 80 78 78 71 76 46 42 36 37 39 38 38 38 39 42 45 42 50 62 70 75 79 76 76 67 56 52 68 72 76 76 78 78 75
54 62 80 81 59 66 78 78 78 75 73 73 76 59 46 40 36 37 38 39 38 36 36 40 36 37 50 71 72 74 77 93 93 87 62 60 59 70 93 94 91 84 82 75

GFSCGP_850_rhum_006.txt.gz
RH
18 24 24 17 17 16 16 19 24 19 15 14 23 31 30 42 46 48 53 56 52 51 49 44 42 42 41 60 66 64 59 58 60 59 60 60 56 47 40 37 37 40 42 43
25 24 17 17 22 23 21 25 26 21 17 15 26 31 35 40 44 46 51 52 53 52 49 51 54 55 59 63 63 61 55 60 61 59 63 51 44 38 38 42 44 44 46 48
28 20 16 23 27 28 34 30 25 23 20 20 26 32 38 34 36 40 46 47 45 47 52 51 51 51 51 57 60 54 51 51 54 50 39 38 37 40 44 45 44 45 41 45
21 22 24 27 27 27 36 27 26 24 27 23 21 44 33 40 42 44 50 48 47 44 43 44 44 45 47 46 42 41 40 39 39 39 36 36 40 42 44 43 43 45 47 54
29 29 31 30 25 24 31 24 25 25 31 31 28 44 38 38 44 46 49 49 42 39 36 40 40 40 42 43 40 38 38 36 40 43 39 42 42 45 47 48 49 56 59 57
25 23 24 24 25 22 22 28 40 39 44 58 38 49 52 49 42 44 46 46 40 36 37 36 38 44 45 44 45 46 46 49 53 51 49 50 50 50 53 58 60 58 61 68
31 30 25 24 31 29 31 48 69 63 73 65 43 59 54 40 37 44 48 43 40 40 39 41 43 45 46 47 48 50 52 54 54 55 54 53 52 56 59 60 69 76 76 69
44 53 30 25 27 29 32 43 67 64 72 54 41 56 48 39 40 40 38 39 40 41 43 46 50 52 54 55 53 55 56 56 58 60 58 56 58 59 63 76 89 88 87 64
46 40 27 23 23 30 34 38 34 59 68 64 56 42 34 34 35 33 32 34 43 46 49 52 55 54 54 53 54 58 60 61 63 61 58 63 58 57 65 62 57 65 64 65
33 41 27 22 29 29 24 27 52 65 56 64 54 52 56 47 42 40 49 45 47 50 52 53 54 54 54 55 56 55 52 53 56 54 50 50 50 54 56 61 62 61 63 72
42 41 37 36 36 37 40 41 45 50 67 72 79 58 44 49 47 53 51 48 48 50 54 57 57 58 58 56 55 53 53 49 41 39 40 38 44 56 67 69 68 80 82 92
40 52 64 36 27 26 28 37 49 70 58 86 85 61 37 45 45 48 49 48 52 58 62 62 59 57 58 54 47 47 47 43 37 33 31 48 70 73 69 71 74 85 88 68
40 55 71 58 50 39 34 33 56 62 68 58 77 60 42 47 46 49 53 61 64 62 61 59 54 48 49 48 48 44 40 39 35 31 30 29 31 35 53 77 78 78 69 70
49 61 54 71 48 41 30 30 49 54 78 67 70 45 57 62 64 61 64 64 63 63 62 53 40 50 48 44 42 41 40 38 34 32 30 29 26 42 63 87 74 86 96 79
57 62 56 43 45 40 35 37 39 41 51 60 52 56 66 65 66 65 65 64 62 61 49 42 52 47 40 40 39 38 35 33 32 31 30 29 28 46 56 65 67 81 61 57
75 75 73 49 63 68 48 47 48 44 36 40 65 73 60 60 66 69 67 66 65 52 44 45 51 40 39 36 34 33 32 30 32 32 33 36 37 46 61 64 83 87 80 53
87 91 78 72 88 79 63 44 46 39 52 39 55 69 64 72 74 70 67 64 55 47 44 45 41 36 34 32 31 30 31 33 36 39 41 42 45 52 66 75 94 82 90 88
97 93 93 75 72 56 52 45 42 69 66 68 70 70 64 69 68 67 63 56 52 47 41 38 36 33 31 30 31 33 36 38 39 42 44 48 52 57 67 91 90 97 90 76
71 90 99 73 90 50 46 43 46 45 78 70 75 72 66 71 69 66 64 57 53 44 39 38 35 33 31 33 35 36 38 40 43 44 48 56 61 58 69 80 77 80 84 55
88 85 80 99 62 53 50 47 42 42 75 72 73 75 70 63 91 76 58 65 54 42 39 37 34 32 34 36 38 40 47 48 48 50 57 64 68 72 70 72 73 71 55 52
98 94 91 98 88 78 54 47 43 71 62 74 71 74 72 79 59 54 59 56 44 39 38 34 35 37 40 40 42 48 49 50 54 61 68 69 72 78 73 65 62 68 71 73
82 93 97 98 96 82 46 50 61 58 68 74 79 74 70 71 68 63 62 45 40 37 37 38 39 39 39 43 48 49 53 61 66 71 73 63 74 79 75 74 74 73 66 64
62 70 83 77 78 48 41 41 40 42 52 77 77 75 74 65 68 61 46 41 38 38 38 38 38 38 40 45 34 53 65 70 75 74 74 67 64 75 70 75 73 70 69 73
59 59 85 74 58 59 47 50 51 63 65 72 77 70 64 67 62 46 40 38 38 38 38 32 25 25 27 29 43 73 79 77 79 84 86 76 62 51 53 74 80 76 81 83
59 59 64 75 59 65 59 60 61 73 75 76 75 75 75 69 45 42 37 37 38 35 27 20 22 27 33 36 41 51 56 73 78 95 94 82 60 61 61 84 88 94 96 90
59 62 78 66 48 53 56 58 71 74 75 77 80 75 59 51 41 37 37 33 29 24 18 22 29 33 38 42 45 55 72 93 89 93 98 95 77 69 70 94 96 98 96 84

GFSCGP_850_rhum_009.txt.gz
RH
19 24 21 19 18 17 16 20 21 22 16 33 40 49 60 55 62 64 62 63 63 58 56 47 46 43 39 47 56 59 78 76 68 74 68 64 68 52 46 40 42 43 46 52
25 24 19 24 26 21 23 23 26 23 24 35 46 50 51 50 60 64 62 63 66 66 61 58 53 47 58 62 66 63 65 76 67 65 68 65 56 43 43 47 51 51 46 44
26 20 18 24 30 30 34 28 25 26 31 34 39 47 43 40 51 60 61 55 55 53 54 55 56 61 63 62 56 52 56 61 62 64 53 40 41 43 45 46 43 42 44 46
26 29 26 28 28 30 34 28 25 28 36 44 32 64 41 46 56 60 62 57 55 54 50 49 49 50 48 43 41 38 38 38 39 40 41 43 44 45 44 45 47 49 54 58
31 29 31 29 26 26 31 26 26 26 34 34 36 54 49 48 60 61 61 57 53 41 38 43 43 41 42 42 44 46 47 50 53 53 52 51 52 51 51 52 57 62 62 63
28 25 25 26 25 25 24 34 44 50 47 58 39 52 56 56 53 56 56 55 47 44 49 48 46 46 46 49 51 52 53 54 55 55 55 56 56 58 57 60 63 65 78 79
33 32 28 26 30 28 35 45 65 60 72 67 47 55 59 44 44 49 53 54 48 48 43 44 47 50 50 52 52 53 54 56 56 57 59 60 59 60 60 59 58 57 52 57
46 53 30 26 28 31 36 44 68 58 75 53 46 58 51 43 39 41 44 44 47 49 49 48 50 53 56 54 54 55 55 58 62 63 62 63 61 51 49 54 61 64 56 62
45 40 29 24 24 31 34 43 39 69 72 68 62 45 39 44 51 44 44 47 48 54 57 52 53 55 55 55 55 56 54 52 55 52 49 46 40 45 62 73 72 65 65 69
38 38 30 25 30 30 29 35 51 67 56 65 60 56 63 48 50 44 50 56 54 57 58 57 56 56 55 54 51 44 44 47 46 43 39 34 41 63 62 72 70 72 70 75
43 38 37 34 37 38 41 41 51 58 70 71 81 69 47 50 49 60 64 60 57 56 56 57 57 57 55 52 46 46 46 43 40 36 32 30 30 29 29 29 41 73 77 83
43 53 65 38 34 34 31 40 47 65 58 87 84 62 44 54 52 56 61 59 60 60 60 60 59 56 51 46 44 45 44 42 40 38 33 32 29 26 19 27 57 82 85 95
40 57 71 60 50 38 35 42 57 60 70 73 73 56 50 49 55 58 63 66 64 62 61 59 51 47 46 44 44 44 41 38 37 32 30 28 29 25 24 22 45 71 67 70
48 62 52 67 50 44 32 35 50 50 73 64 70 47 64 66 68 67 69 66 64 63 61 49 48 48 46 44 42 39 38 34 31 29 30 32 31 34 38 38 51 68 78 94
55 55 55 52 57 43 39 35 50 55 53 60 52 57 58 72 74 70 66 65 64 61 51 46 51 47 42 40 38 36 33 30 30 32 35 34 37 40 45 46 49 71 100 99
67 78 68 58 68 69 46 41 46 47 43 54 61 72 65 63 67 70 67 65 64 57 45 40 44 48 40 38 34 32 31 31 33 36 38 41 42 44 52 52 70 80 99 99
81 92 63 51 84 70 50 51 48 41 48 53 77 66 69 79 74 69 66 66 62 51 42 42 42 39 37 33 31 31 32 35 38 41 44 46 50 57 59 55 69 92 95 97
97 94 87 74 72 45 37 46 48 48 64 68 72 73 69 71 64 62 62 62 58 49 42 41 38 36 34 32 32 34 37 40 44 48 48 51 59 64 65 66 79 80 83 85
72 90 97 71 78 47 34 53 67 55 60 71 75 72 65 66 69 68 64 60 51 47 43 40 38 36 32 33 37 39 41 47 50 49 48 62 69 70 75 76 72 73 74 71
81 83 74 97 54 43 36 51 43 43 70 71 67 73 72 76 94 81 61 62 62 53 41 39 36 33 35 39 40 42 48 51 46 47 61 73 74 67 74 76 67 65 61 62
98 96 82 99 78 69 50 48 44 64 54 70 62 64 69 81 67 54 61 65 59 42 40 36 36 38 40 38 40 45 46 36 57 68 75 79 74 63 75 77 78 75 78 80
87 93 98 96 95 63 45 51 62 56 40 47 60 64 67 64 62 62 63 50 44 40 38 38 38 38 29 30 34 27 32 54 71 81 83 83 83 67 70 74 71 71 69 68
70 65 78 72 73 48 48 45 40 39 38 51 56 68 72 67 72 66 65 47 41 39 38 38 32 19 19 22 26 32 38 46 55 64 71 89 93 74 58 53 71 78 73 78
68 59 81 70 53 56 42 42 46 46 46 48 62 72 72 70 66 67 48 41 39 38 36 25 17 17 20 26 30 40 45 48 56 72 85 98 98 70 56 57 69 82 89 96
66 67 68 79 64 58 58 51 47 47 57 64 71 75 68 64 67 50 41 40 37 29 20 17 19 23 27 32 37 45 50 56 73 88 91 97 99 89 68 67 94 96 97 96
63 64 78 71 40 49 44 41 44 51 61 69 74 74 76 75 57 40 38 33 25 18 18 21 24 28 32 34 35 42 57 70 86 94 91 94 98 95 92 87 93 96 96 97

GFSCGP_850_rhum_012.txt.gz
RH
20 26 24 19 18 14 17 17 19 20 21 51 63 67 69 71 67 66 66 61 58 55 54 54 56 56 52 60 68 62 74 73 90 84 76 77 76 64 55 46 45 46 49 47
26 25 20 25 26 25 24 27 27 29 34 52 56 58 54 56 67 70 73 73 66 60 59 61 75 82 85 88 82 71 68 74 72 73 74 56 44 42 42 41 44 50 45 45
27 21 23 26 30 31 33 28 27 32 43 46 48 55 55 52 64 67 70 69 66 60 65 74 74 68 60 53 52 51 54 58 57 50 38 43 44 44 45 46 47 47 48 50
32 29 27 29 29 31 30 29 28 41 41 51 40 73 49 55 64 66 65 60 57 57 57 56 51 43 38 38 40 40 42 45 47 46 46 49 51 52 52 52 51 52 56 60
32 29 31 30 27 28 32 32 29 29 37 37 42 65 54 60 68 70 66 62 56 50 47 38 39 41 40 43 46 47 49 50 50 51 54 55 57 57 58 56 56 59 63 57
32 27 28 27 28 26 28 37 46 52 50 56 41 53 60 69 64 65 62 61 54 53 48 42 46 45 46 48 50 51 52 55 56 56 58 60 60 64 62 60 60 65 56 55
35 33 30 28 31 30 41 45 65 60 72 69 49 55 52 50 54 56 59 58 58 55 48 48 49 49 50 51 53 54 56 58 59 60 61 62 61 53 48 51 57 68 65 61
47 50 30 26 29 34 38 44 66 57 78 60 48 60 53 45 41 44 48 52 56 56 55 60 60 53 53 54 56 59 59 59 57 54 52 49 44 41 44 40 35 42 52 64
46 40 29 26 27 32 37 44 43 71 70 68 65 49 46 58 57 51 50 53 58 61 65 61 60 58 57 57 56 54 50 45 44 37 33 32 29 30 30 28 26 25 26 50
41 38 33 27 30 33 31 39 48 68 54 64 65 60 67 59 61 58 57 55 61 66 61 60 59 57 56 55 51 48 45 43 41 38 37 36 30 28 26 22 19 15 15 71
39 39 38 34 39 40 41 44 56 59 70 69 81 69 53 57 55 57 56 54 59 62 60 59 57 57 55 52 54 58 42 44 42 36 34 30 28 28 21 19 18 18 37 77
44 55 64 38 36 40 34 40 45 62 48 87 84 62 45 56 48 48 58 59 63 63 61 58 58 57 53 51 43 42 44 41 36 34 30 30 32 30 26 21 20 23 34 81
42 58 73 53 43 37 36 51 57 60 73 73 79 59 56 62 62 60 66 67 67 62 60 60 58 52 45 42 44 44 49 38 35 30 31 35 34 34 30 27 26 30 39 77
44 60 50 60 45 47 36 46 50 48 72 65 72 43 59 64 70 72 72 68 65 63 61 58 51 47 44 44 60 57 39 35 31 32 36 38 39 38 33 33 40 43 63 89
50 54 53 60 62 48 40 36 55 51 49 54 49 54 46 65 71 71 68 68 66 64 61 51 48 47 46 59 54 38 35 32 32 36 39 42 43 40 36 50 52 52 75 84
63 70 60 62 70 68 50 44 46 51 48 60 55 59 57 63 61 70 69 67 66 64 57 48 48 48 46 46 39 35 32 32 36 38 42 46 46 40 48 57 61 67 86 97
71 88 57 44 76 62 50 47 50 47 49 50 63 48 76 79 75 72 68 66 63 62 54 44 42 41 38 38 36 32 32 35 39 41 47 50 46 57 55 64 72 73 85 86
95 87 80 71 68 43 36 43 45 49 52 62 61 65 72 68 73 64 62 61 62 61 52 43 39 38 38 36 33 33 36 40 42 46 51 45 55 70 61 60 66 72 75 78
68 86 94 69 74 45 29 57 64 58 49 72 67 73 72 70 69 68 64 61 60 58 48 43 40 40 36 34 34 37 40 42 47 50 44 59 68 77 65 62 69 71 67 69
79 81 71 91 53 42 36 43 47 42 70 64 64 74 75 73 90 69 54 57 61 54 50 44 41 38 35 35 38 39 37 44 38 41 60 66 79 80 81 66 74 75 77 78
98 98 76 99 75 63 46 48 44 63 56 67 57 57 70 79 62 54 55 58 63 64 61 42 39 36 38 38 30 30 28 27 33 37 42 60 78 84 88 73 74 74 71 70
90 94 96 96 88 53 42 51 59 54 36 38 47 49 55 53 62 60 58 64 67 65 44 39 38 39 29 21 20 21 26 29 32 35 41 50 63 90 95 75 59 59 75 73
71 64 75 66 67 43 42 52 42 42 38 39 42 42 49 57 65 64 63 64 54 43 40 39 37 24 16 18 22 26 29 32 34 41 51 61 80 95 96 68 61 64 78 76
71 59 78 66 48 56 41 36 40 43 43 44 46 47 50 63 69 73 71 55 44 40 42 40 21 16 18 24 28 31 32 34 39 51 66 77 91 95 97 80 63 75 84 95
69 68 69 77 63 51 42 39 38 41 46 49 51 57 63 72 74 72 65 56 41 56 36 20 17 20 25 29 32 35 39 40 49 64 77 83 92 95 99 92 81 87 92 91
65 64 79 75 35 40 35 33 38 45 46 47 62 71 78 77 72 61 59 44 81 27 20 19 22 27 31 33 38 42 42 51 70 83 100 100 96 100 99 94 96 96 92 92

GFSCGP_850_rhum_015.txt.gz
RH
21 21 19 20 16 13 16 17 18 24 35 49 60 58 59 66 66 66 67 60 60 57 54 53 53 55 57 59 66 72 73 73 69 76 78 76 73 64 45 43 43 42 46 50
23 26 22 26 26 24 24 26 33 36 41 46 50 58 58 60 67 69 69 68 62 59 63 62 61 67 75 74 72 77 69 69 70 75 70 45 39 40 42 44 46 47 48 48
27 23 24 27 30 32 33 29 31 36 44 43 44 50 59 60 67 73 76 75 74 71 80 90 82 68 56 55 57 61 58 64 67 47 41 45 47 48 49 50 52 52 52 56
32 29 26 28 31 30 35 30 38 45 37 38 37 30 55 62 65 66 70 75 79 82 79 67 58 53 48 46 44 45 46 46 47 49 50 52 52 55 55 56 58 58 62 62
33 30 30 32 30 30 35 33 33 31 32 34 40 37 48 61 66 63 63 69 71 70 62 53 50 43 38 41 44 45 49 51 53 54 55 56 58 61 64 63 60 58 67 64
33 29 30 29 34 31 39 37 40 44 40 41 38 36 43 63 57 57 60 66 65 57 49 44 42 41 44 48 49 50 53 54 57 58 59 61 61 59 56 52 50 47 44 33
34 34 30 29 33 33 34 38 48 51 57 47 47 47 36 41 47 50 55 59 61 52 47 47 46 47 49 50 52 53 55 57 60 60 53 43 36 32 33 34 30 25 22 20
37 34 29 28 31 34 40 38 55 57 60 49 46 53 37 41 42 49 51 57 56 53 53 54 52 52 52 54 55 58 60 57 46 40 33 28 30 28 28 27 22 16 16 16
44 40 29 28 30 32 39 37 42 60 63 56 46 43 38 49 44 53 57 60 62 57 56 56 57 58 59 60 59 55 48 44 39 38 34 34 29 27 27 24 19 13 9 11
42 40 34 30 32 36 33 38 43 48 52 50 43 52 41 55 48 50 56 58 63 58 61 62 61 62 60 57 51 61 53 42 40 35 34 30 27 29 27 22 21 12 11 14
37 40 40 37 38 39 40 43 52 47 55 43 48 35 45 45 45 48 50 57 56 60 63 65 63 59 56 52 55 54 52 50 55 37 32 30 31 34 34 32 20 16 18 22
45 52 54 38 36 40 36 41 42 48 46 66 64 40 38 47 46 52 53 55 56 61 64 65 59 58 54 50 53 56 55 57 36 36 31 32 35 38 39 32 23 28 32 34
45 54 60 45 36 36 39 48 48 55 65 68 76 36 44 58 54 52 52 57 60 66 68 60 59 56 51 44 44 54 56 41 38 33 32 35 38 41 42 32 33 43 44 44
42 53 49 49 39 44 44 52 46 43 56 55 60 40 37 50 56 63 63 63 68 70 62 60 59 55 47 43 53 66 42 41 34 32 34 38 43 45 44 35 40 46 54 56
47 50 54 59 58 51 41 44 49 41 44 50 43 45 36 40 49 60 73 72 69 64 61 61 58 49 45 51 56 42 39 37 34 32 36 41 47 49 42 41 42 49 62 69
58 62 58 65 64 60 52 44 44 51 51 44 48 47 39 49 61 70 73 73 71 65 62 60 52 46 58 46 37 40 38 35 33 34 39 43 50 51 41 52 50 49 61 72
63 78 54 48 64 52 51 47 43 47 46 44 52 37 59 62 66 63 73 72 68 63 62 58 50 47 40 38 41 41 36 34 34 38 42 45 52 45 53 62 56 57 59 70
78 67 64 62 66 48 33 46 41 43 44 41 47 48 56 60 60 60 61 60 63 62 62 56 47 41 39 39 40 36 35 34 38 41 41 49 41 54 62 71 66 62 68 67
61 72 78 69 56 43 27 40 54 56 37 45 46 52 70 72 68 67 60 59 57 61 62 54 43 40 40 40 36 34 34 38 36 30 25 28 46 54 76 80 79 67 73 76
69 74 65 74 51 48 34 32 51 44 59 44 55 66 76 71 76 50 48 58 63 65 61 51 45 42 41 38 35 36 37 22 16 20 25 31 40 53 63 72 86 73 70 72
96 93 71 79 69 57 40 45 45 51 45 46 55 53 73 68 52 39 43 57 64 62 56 52 62 42 37 37 38 24 15 17 22 26 31 36 40 45 56 77 90 68 57 65
70 82 82 84 73 57 39 52 59 50 39 33 46 41 46 38 44 54 54 57 66 64 64 66 42 38 39 32 18 16 19 23 26 29 32 35 40 54 72 86 92 60 56 68
66 63 66 59 62 39 38 48 39 45 41 37 44 40 46 50 58 58 60 63 66 66 54 41 40 70 30 18 17 21 24 29 30 31 33 42 56 70 83 94 91 69 62 77
68 61 68 63 46 53 40 36 35 34 38 39 42 48 51 54 61 67 68 68 63 46 43 50 75 30 18 19 22 26 31 34 34 35 42 56 70 78 83 93 96 84 69 84
65 66 68 71 59 47 33 32 32 36 39 40 48 53 55 62 68 74 74 64 49 60 79 79 22 18 21 24 28 34 35 35 38 48 64 90 100 93 91 94 98 89 89 94
68 62 73 71 34 41 36 36 42 47 48 50 55 60 68 77 80 80 67 49 72 96 82 22 20 22 27 30 35 37 38 39 52 67 80 98 100 95 95 95 99 95 93 96

GFSCGP_850_rhum_018.txt.gz
RH
22 17 15 12 10 10 10 11 12 15 26 22 22 23 27 36 42 44 42 47 50 52 67 66 51 51 52 53 57 67 71 84 74 83 76 70 74 73 59 50 48 49 50 51
20 17 18 19 15 13 13 12 18 24 28 25 25 29 32 33 39 43 44 46 49 58 68 85 92 72 88 91 97 96 95 77 84 81 74 72 74 56 42 44 46 50 54 53
17 20 22 19 18 17 19 18 23 20 27 26 24 28 33 39 42 48 52 48 52 57 69 82 89 93 99 96 96 93 84 80 80 63 48 44 45 48 57 60 60 59 58 63
23 22 20 19 22 22 22 21 22 27 23 21 25 18 33 38 41 43 51 53 57 66 74 79 80 81 86 87 78 74 76 71 53 49 57 58 61 64 62 64 68 71 63 60
26 23 21 20 24 24 25 24 23 22 21 24 25 22 30 40 42 44 50 58 64 70 66 62 58 62 65 68 59 57 50 45 49 52 54 63 61 65 68 71 72 75 74 75
24 24 22 23 25 23 26 26 25 24 24 29 21 24 17 34 32 39 48 55 61 61 54 51 53 56 60 65 52 58 57 58 59 57 58 59 51 56 56 61 54 46 43 43
24 24 22 25 26 27 26 23 28 34 35 33 32 29 18 21 31 33 43 48 56 54 48 49 53 53 60 67 70 66 65 64 62 57 41 33 32 40 43 40 37 38 34 36
22 32 22 24 25 22 25 24 28 33 36 25 34 27 20 27 28 35 42 42 48 49 49 51 52 58 65 70 68 68 67 62 48 43 42 33 28 23 34 37 32 40 43 44
26 27 24 26 25 25 29 28 29 41 48 42 22 24 24 31 31 35 39 40 44 46 50 54 60 62 67 68 72 66 56 50 43 43 57 42 27 30 31 34 47 44 46 48
29 33 27 28 26 28 26 27 34 33 45 37 21 24 18 34 34 34 36 40 43 42 49 57 61 67 66 68 65 59 48 48 74 70 48 32 32 34 36 40 46 47 48 50
25 27 33 31 29 26 31 30 30 28 37 26 23 14 25 28 30 35 36 39 40 45 52 60 64 68 67 68 60 52 54 68 61 45 35 32 34 36 40 47 53 52 55 59
31 32 42 32 30 30 28 27 24 27 33 44 50 21 25 32 32 31 35 38 40 49 55 61 63 66 67 63 53 55 63 62 48 42 33 33 34 36 53 59 58 60 65 68
33 37 43 38 32 30 31 30 27 35 43 43 60 19 26 32 33 34 35 36 45 54 59 62 61 61 60 55 52 54 64 64 54 36 37 41 44 52 58 60 61 65 68 71
33 37 36 38 28 29 36 35 29 25 36 28 33 15 21 23 28 30 37 39 49 58 61 58 59 56 53 51 45 60 76 50 43 39 40 42 51 56 61 64 65 68 71 76
37 39 37 34 36 34 30 30 31 28 26 33 18 21 13 17 20 24 36 45 50 58 60 58 57 54 50 46 44 74 55 50 38 37 42 45 54 59 63 70 66 72 75 78
42 46 48 50 43 39 38 29 27 28 25 28 23 24 17 21 29 32 43 49 52 56 57 57 59 57 50 45 60 54 54 41 37 39 44 49 53 58 64 66 71 73 71 75
50 59 46 39 45 44 62 39 27 26 28 29 32 23 22 30 33 33 40 49 51 54 56 58 59 57 50 52 51 50 51 39 36 39 39 44 50 58 61 62 66 70 74 78
60 50 54 57 60 78 19 27 26 25 24 21 23 21 25 26 38 45 43 46 53 54 57 58 58 58 54 47 50 49 42 38 36 34 38 34 50 54 57 64 69 75 75 78
41 49 70 85 41 28 14 23 28 34 21 20 22 20 26 48 52 44 48 51 53 57 58 60 60 59 50 40 40 40 38 36 35 39 23 40 41 58 60 65 73 79 78 80
47 51 47 65 86 84 26 29 43 36 34 27 33 34 42 49 53 22 30 37 58 61 62 62 60 48 41 42 56 55 38 37 31 15 19 22 47 60 66 71 77 84 85 81
76 79 81 62 81 41 26 28 43 38 30 34 43 42 49 46 34 43 34 51 61 64 66 62 54 46 45 70 46 37 35 20 16 19 21 30 47 58 62 77 88 88 86 79
57 68 85 70 91 76 30 42 49 39 43 42 43 47 51 46 56 56 50 62 65 66 62 56 51 54 68 44 72 29 28 18 20 23 26 39 49 62 84 91 91 94 88 86
51 47 47 42 38 33 36 35 42 49 47 46 49 44 54 55 58 60 64 66 67 57 53 55 53 56 69 79 21 18 33 23 25 28 35 63 81 93 94 93 92 91 85 90
47 48 52 51 30 33 36 39 40 41 43 43 44 48 52 57 56 65 69 62 60 52 50 48 56 94 62 21 17 21 25 25 29 33 58 87 81 77 78 85 100 97 90 91
49 50 48 50 39 36 36 39 43 44 49 53 54 61 68 70 69 72 67 59 53 51 50 86 99 36 24 20 22 24 30 33 38 62 83 85 94 96 100 98 100 100 94 93
50 42 55 50 36 42 39 46 54 58 60 69 73 73 82 80 81 74 60 64 70 77 96 68 39 28 25 24 26 33 36 38 44 53 82 94 97 97 99 100 100 100 92 94

GFSCGP_850_rhum_021.txt.gz
RH
22 20 21 14 13 11 10 10 8 9 11 9 9 13 15 18 21 24 25 29 34 39 44 57 61 62 60 71 81 100 86 88 84 99 97 94 83 80 75 70 72 60 57 56
19 19 14 11 11 10 9 10 12 12 12 15 11 13 14 17 19 22 24 26 30 36 48 59 67 70 71 78 85 98 99 97 98 85 75 72 70 64 62 68 55 60 60 70
21 19 17 14 12 12 12 11 16 14 15 14 13 16 21 21 22 28 28 28 30 35 48 61 69 73 79 86 94 97 96 90 72 70 75 72 69 64 62 65 63 70 77 76
36 19 17 13 14 13 17 16 14 16 18 18 14 18 18 23 26 27 32 32 34 38 46 60 68 76 83 86 83 77 75 72 79 63 54 55 52 55 67 63 69 71 75 78
19 18 15 15 18 18 29 18 18 16 17 19 18 16 44 25 25 27 28 33 36 42 52 58 66 68 70 74 71 70 71 62 62 65 66 62 64 66 66 66 64 57 50 45
39 18 16 17 19 18 18 20 19 17 14 24 14 18 23 24 20 24 30 37 43 51 55 50 52 58 65 67 69 66 59 62 67 69 73 72 67 59 54 50 41 37 35 35
19 17 18 18 20 19 17 19 27 27 29 28 18 19 15 10 18 18 31 40 49 50 46 42 46 48 56 63 66 63 61 67 70 66 61 59 58 46 42 43 36 38 37 38
22 28 19 17 19 18 19 17 26 27 27 23 21 20 13 18 16 20 30 38 46 46 40 39 42 45 53 62 64 59 62 63 61 59 53 50 68 65 49 43 44 41 42 42
18 23 18 19 18 16 18 24 19 27 31 33 17 11 14 22 22 23 30 36 43 41 38 39 43 48 55 62 63 63 61 55 52 52 63 69 61 44 49 51 51 46 45 43
17 23 19 22 20 21 22 18 26 22 32 32 14 14 11 23 22 24 28 33 38 38 38 40 44 52 58 61 66 64 55 50 57 62 62 51 42 48 51 54 53 48 49 54
16 18 26 25 24 18 25 23 21 22 29 33 24 16 14 14 19 23 26 30 35 36 38 42 49 55 59 63 66 60 50 58 66 63 51 40 47 51 53 54 55 52 55 57
18 19 29 25 22 21 22 22 22 33 27 30 42 23 15 18 19 22 25 28 32 36 36 42 50 56 58 64 61 53 55 62 62 57 60 49 49 47 49 54 55 54 58 60
26 23 34 30 27 24 23 20 20 20 33 28 50 23 15 18 19 20 22 26 31 34 36 42 50 56 58 62 56 52 59 61 56 61 47 42 46 47 51 54 55 57 58 60
30 24 27 33 26 22 30 23 20 24 35 29 26 16 14 16 16 15 21 23 28 32 37 43 50 54 57 60 54 53 59 66 65 48 37 36 41 49 54 57 56 60 61 65
31 35 27 24 25 24 22 19 22 22 21 30 21 14 10 10 12 13 16 23 24 32 39 45 51 52 53 56 53 51 61 73 55 42 38 39 43 52 56 56 58 60 65 66
32 37 39 43 29 29 27 22 18 17 18 16 15 16 11 13 13 17 18 24 27 32 40 46 50 50 51 51 51 50 70 58 55 45 45 45 46 52 56 53 59 59 61 62
40 51 43 33 33 34 55 37 24 17 16 18 24 17 12 17 19 20 20 26 30 34 40 46 48 49 50 49 48 48 63 52 50 46 45 45 49 53 49 50 49 52 58 65
57 46 47 45 64 76 15 17 15 19 16 13 14 14 13 16 23 27 27 26 32 37 40 44 47 50 52 51 47 58 49 50 49 47 49 50 50 41 43 48 50 54 61 66
31 41 54 81 35 23 18 14 20 22 20 15 18 15 15 23 34 28 30 32 30 33 39 44 48 51 53 52 49 49 51 49 53 53 47 43 42 47 48 49 52 60 65 69
37 47 44 51 82 85 30 24 28 26 26 19 19 20 20 27 36 21 32 32 34 36 41 46 50 54 55 54 50 50 56 69 49 44 44 37 44 47 49 55 63 66 75 72
66 72 75 58 73 43 21 22 31 32 37 30 29 26 29 29 27 43 42 33 39 40 45 50 55 56 57 49 54 62 51 64 51 41 28 42 51 54 62 68 70 77 76 78
51 62 80 63 91 76 22 29 37 39 29 28 33 32 38 41 40 41 47 46 44 48 53 57 56 50 52 57 68 85 78 45 31 18 25 59 62 71 74 78 80 79 76 82
47 38 43 37 37 28 26 25 27 32 36 36 36 36 37 38 41 41 46 52 53 56 54 52 49 60 71 88 99 66 46 38 19 20 42 70 74 79 85 88 89 84 83 88
34 35 41 40 22 22 25 28 31 34 36 38 39 42 45 45 49 52 52 58 57 50 48 56 82 96 96 81 50 42 32 29 24 48 75 79 85 83 87 86 89 97 93 91
38 36 35 38 28 25 28 33 40 46 49 50 51 55 60 65 60 60 62 57 51 57 89 99 93 89 78 76 51 48 30 27 35 35 43 61 69 92 91 87 94 100 100 100
37 31 50 48 40 47 38 48 64 62 66 70 69 67 68 68 68 64 55 62 92 96 99 95 95 86 81 59 38 27 28 33 35 37 41 69 94 92 90 90 100 98 96 90

GFSCGP_850_rhum_027.txt.gz
RH
27 32 36 28 24 23 23 22 21 16 14 23 24 22 22 20 29 34 33 38 37 36 35 37 39 44 58 66 73 74 66 69 79 68 55 72 82 80 81 77 60 42 40 47
35 31 24 22 21 26 24 23 22 15 14 16 17 18 19 19 24 36 26 34 38 39 41 42 42 44 56 73 77 74 77 74 80 70 62 79 81 76 74 68 59 46 49 54
37 35 26 22 29 32 26 30 25 18 11 10 17 25 30 20 17 34 30 33 37 38 43 45 44 56 64 74 82 66 75 73 72 79 84 91 78 76 71 66 53 54 61 63
43 30 27 28 33 20 22 23 24 20 26 22 24 37 39 32 21 22 25 33 36 38 44 50 53 52 67 74 85 84 83 72 73 83 92 83 75 75 68 63 65 70 71 54
40 35 33 34 33 20 28 21 23 25 27 30 34 39 39 31 24 29 34 27 33 37 45 54 60 64 65 71 73 80 76 85 87 93 86 73 71 64 63 72 73 68 52 56
33 22 27 28 24 18 22 22 27 33 37 56 31 40 45 49 30 37 33 23 26 38 46 54 61 65 66 65 75 78 84 80 76 70 71 62 64 64 66 69 67 52 62 56
22 21 25 24 26 25 29 33 50 58 77 70 39 42 42 37 32 32 30 25 28 36 46 56 61 66 70 68 72 88 86 77 74 60 63 64 65 66 66 63 52 63 46 26
35 42 35 29 24 28 25 34 65 72 83 64 38 45 33 26 25 27 23 28 28 43 50 56 66 74 70 78 76 75 73 71 66 63 64 66 65 62 57 52 57 51 27 15
48 42 40 34 27 24 23 30 33 66 68 76 48 20 24 30 39 46 39 35 44 45 54 62 66 70 74 74 73 72 66 62 61 62 66 67 65 54 53 57 49 27 20 15
60 50 51 46 31 24 21 24 39 52 51 53 33 27 43 32 29 42 51 48 48 50 52 55 61 61 61 62 65 63 61 62 64 64 62 57 52 57 56 44 33 28 31 29
54 56 56 44 42 32 29 29 24 32 57 64 74 44 19 23 28 35 45 45 47 49 47 48 52 51 52 54 56 62 63 64 66 62 60 54 59 52 45 42 40 44 49 46
52 53 70 42 26 21 21 29 43 65 39 70 76 53 20 18 22 23 25 42 44 46 45 42 43 44 48 53 59 62 62 63 61 60 56 56 60 49 48 47 50 56 56 56
34 37 62 41 33 29 27 25 24 41 64 54 68 53 20 17 16 17 20 22 41 43 42 40 39 41 46 53 59 62 63 63 57 54 54 60 61 48 50 52 54 54 56 57
33 35 43 56 40 32 33 36 32 32 71 60 65 39 27 23 23 20 17 19 29 38 40 38 38 40 45 51 57 61 65 66 58 52 59 60 56 52 56 57 53 55 57 58
39 42 32 38 38 33 29 32 30 29 38 50 43 37 30 19 22 20 20 19 18 24 35 38 38 41 47 53 57 61 67 66 59 56 61 58 52 53 52 52 55 59 66 56
37 60 44 43 37 35 34 33 30 29 28 23 25 29 20 19 19 19 19 19 22 22 22 25 38 44 45 52 56 61 64 62 55 57 60 60 51 47 51 58 67 67 56 49
52 68 67 54 46 39 45 30 32 32 27 25 30 28 32 32 29 24 23 24 25 25 26 28 38 48 50 54 56 58 62 59 55 60 63 52 48 54 63 67 72 50 39 35
64 63 77 76 65 44 34 19 18 25 25 26 26 29 30 26 33 30 27 29 29 32 32 33 33 37 49 55 57 58 61 54 58 64 61 52 58 65 72 85 47 55 40 52
62 74 84 72 78 48 33 29 28 25 33 31 36 34 29 25 30 40 34 32 33 31 31 32 34 38 44 48 51 57 55 54 59 54 52 66 81 96 90 79 56 40 53 57
49 67 72 82 80 68 53 27 24 24 59 37 35 40 38 33 71 61 40 37 34 41 40 38 40 43 48 52 52 52 54 57 61 73 81 88 88 90 71 49 41 82 59 78
85 81 78 94 89 76 46 27 25 42 55 35 33 36 36 49 48 42 41 44 46 47 45 47 48 50 53 53 52 55 63 70 85 88 93 97 97 71 45 54 62 81 81 78
77 93 95 96 99 82 30 29 37 56 35 34 34 35 37 38 40 42 47 49 50 50 53 55 54 56 59 59 56 64 71 92 98 98 94 82 51 44 38 66 80 81 60 61
71 75 83 73 81 51 25 28 29 29 35 43 46 48 47 54 57 56 54 53 53 54 55 57 58 62 64 62 63 71 89 95 88 78 61 61 36 37 66 70 56 60 71 86
41 39 73 52 34 34 27 42 45 44 50 58 59 58 60 63 62 57 53 52 52 55 58 60 58 57 62 72 82 86 89 83 70 62 40 30 37 43 43 48 60 78 88 92
59 42 48 52 38 60 62 62 60 60 60 62 63 62 61 63 61 58 56 56 62 62 60 63 68 75 83 90 89 79 67 58 43 30 33 36 38 39 42 49 64 85 94 94
44 52 70 81 59 65 66 64 62 60 62 63 62 63 62 62 66 68 68 67 68 74 76 77 86 92 83 66 55 51 39 36 35 34 38 39 41 46 53 59 62 78 87 76

GFSCGP_850_rhum_030.txt.gz
RH
31 35 37 30 30 24 23 27 30 24 17 24 26 27 45 46 47 47 42 41 43 47 59 56 57 63 60 41 36 38 38 58 59 73 66 67 54 64 72 71 66 57 45 38
36 37 27 25 25 29 31 32 32 25 19 24 26 24 34 35 40 44 41 40 40 45 54 52 54 63 61 57 58 51 45 44 52 65 65 58 56 69 76 69 68 49 44 43
38 31 28 25 26 30 31 34 32 29 19 15 22 32 27 22 36 40 40 36 37 37 42 49 51 52 58 65 62 64 62 62 58 68 75 60 69 77 76 72 70 55 49 50
35 30 27 30 30 31 35 26 27 26 29 24 25 43 37 30 30 43 39 42 41 39 37 40 44 51 51 57 62 67 69 80 81 81 82 59 71 70 68 68 69 57 56 56
32 34 28 32 31 28 35 22 23 26 34 33 31 34 33 35 24 38 32 32 41 43 39 44 44 45 51 59 67 62 81 93 92 84 74 72 68 65 66 74 68 62 60 61
29 28 28 30 27 27 24 25 36 45 46 55 42 38 40 41 30 23 27 27 30 42 49 50 51 54 64 67 76 84 85 84 89 83 83 78 74 75 79 72 68 67 65 54
34 29 24 25 26 26 26 34 49 49 70 60 43 43 38 34 33 32 30 26 29 39 48 54 56 64 64 73 72 73 73 76 87 93 92 92 87 88 78 68 70 69 54 55
38 44 36 32 27 31 31 34 59 53 70 53 43 51 39 28 26 26 26 30 31 40 49 53 58 62 66 72 80 86 74 78 77 84 81 77 74 70 68 68 69 55 58 39
47 42 42 41 31 31 30 32 34 66 74 73 56 32 28 35 37 36 41 34 33 46 55 56 61 63 66 73 76 73 77 78 77 67 69 69 69 69 68 61 59 56 37 37
45 41 43 40 28 28 30 25 36 57 56 58 40 36 43 31 29 37 48 40 41 54 55 55 60 67 76 78 74 76 79 76 77 73 71 68 66 62 58 59 55 50 49 39
53 37 42 37 41 35 33 31 30 40 56 57 69 46 26 30 32 44 48 36 43 54 54 56 60 67 70 76 75 74 74 73 71 67 64 68 67 59 56 57 53 40 50 62
48 54 71 41 31 33 31 33 42 62 37 76 77 49 28 26 30 38 36 35 47 51 50 52 55 58 65 66 65 59 58 56 52 56 61 64 59 56 57 55 46 51 62 57
43 46 62 44 32 30 32 29 33 50 64 58 69 52 25 23 20 24 32 38 44 50 51 53 55 55 55 54 51 49 48 52 55 61 64 63 59 55 61 50 53 56 60 56
31 42 42 54 34 33 34 35 36 43 71 61 65 39 32 28 26 20 21 24 39 46 50 50 51 50 50 48 48 49 56 62 63 64 63 60 56 58 59 51 56 63 57 59
37 40 36 36 39 36 32 36 34 36 41 50 41 44 32 24 23 23 18 22 29 44 51 50 48 47 49 52 54 55 61 63 65 64 61 56 57 59 54 52 57 58 64 72
44 51 46 41 42 36 32 32 34 33 30 40 33 34 33 26 25 26 23 24 26 29 31 32 39 44 45 48 50 57 62 65 68 66 58 58 59 55 52 56 59 64 75 83
54 69 66 55 49 37 53 38 32 32 30 29 37 33 33 39 36 30 29 27 29 33 35 34 36 42 44 45 48 55 61 66 70 61 61 59 59 52 57 59 63 82 95 88
64 65 75 74 58 55 42 30 28 38 35 34 36 34 41 44 40 34 33 32 32 31 32 34 37 41 46 48 53 58 66 74 63 62 60 63 54 55 61 74 95 94 94 68
62 82 86 68 70 51 33 28 29 33 39 34 40 38 35 41 40 43 41 37 37 35 34 32 32 33 38 57 62 66 73 69 64 70 66 64 71 80 92 93 93 92 52 46
70 72 74 92 70 59 47 35 26 33 65 39 42 44 43 36 81 64 49 42 41 40 41 40 40 41 44 50 64 68 70 68 71 70 74 90 95 98 99 94 73 51 50 53
82 86 76 96 78 68 48 34 26 34 44 39 37 39 38 54 52 53 50 46 47 46 47 49 50 48 52 59 66 68 71 70 77 80 94 98 99 100 92 64 48 47 56 59
67 86 95 95 90 64 41 32 37 44 42 36 37 38 44 55 53 49 50 50 53 53 55 56 54 56 61 62 61 65 70 80 86 98 99 100 85 62 40 45 48 50 53 50
57 68 78 72 74 48 33 34 36 34 37 47 45 48 47 53 56 55 56 58 60 61 63 65 63 64 64 63 64 71 80 91 96 92 66 55 34 33 36 37 46 47 46 48
49 57 73 62 56 57 48 41 40 41 45 56 56 55 56 57 58 58 60 63 65 64 63 65 65 68 73 81 86 87 88 77 58 44 29 27 28 30 34 39 42 46 48 55
59 50 57 66 73 69 69 66 61 60 61 59 61 61 61 61 62 64 68 69 67 68 71 74 76 83 87 83 63 48 39 33 29 27 27 30 34 37 39 43 47 52 56 69
50 57 68 72 55 61 72 68 64 62 64 64 60 64 66 65 66 67 69 71 75 78 84 84 80 67 57 53 48 50 53 47 45 44 49 52 52 47 50 55 57 65 73 85

GFSCGP_850_rhum_033.txt.gz
RH
33 37 38 31 31 27 29 33 35 28 23 25 34 30 46 50 53 61 63 72 72 60 55 57 57 59 67 80 81 77 77 73 69 72 76 87 84 73 64 68 70 69 69 69
36 38 30 30 28 30 31 33 32 31 23 25 30 27 42 54 49 52 53 58 67 65 62 65 63 65 65 70 75 84 79 71 72 72 71 75 75 70 67 76 73 66 57 47
37 29 28 25 25 29 30 33 36 34 24 22 28 29 28 29 44 46 51 47 56 53 58 64 60 62 62 64 50 50 49 53 65 70 74 77 76 70 76 78 74 66 52 50
36 32 30 30 31 30 37 29 33 29 28 22 25 38 36 33 41 47 47 48 50 47 54 59 62 58 57 54 50 46 43 44 49 62 76 78 72 66 67 72 73 73 67 62
33 38 32 31 28 31 34 30 30 27 35 34 35 36 34 36 37 45 47 45 46 46 48 53 57 56 55 65 57 52 55 60 55 62 81 79 84 75 67 74 74 76 71 61
31 29 27 26 26 31 27 27 37 48 46 55 41 39 40 40 32 32 42 42 44 45 44 47 49 58 58 63 64 64 68 65 72 77 73 85 91 75 70 72 77 77 70 65
32 29 27 28 26 28 30 35 46 46 66 58 43 43 40 28 31 31 38 38 36 41 46 46 48 50 55 53 59 65 65 79 89 93 95 95 88 77 80 71 76 76 70 69
42 39 32 32 28 32 33 33 54 49 65 46 47 57 38 30 30 28 26 23 26 29 42 47 45 47 54 53 56 70 66 69 82 86 89 86 82 92 88 86 80 76 73 62
44 38 38 39 31 28 31 36 35 65 75 71 55 42 29 31 33 47 40 33 33 31 40 44 49 52 55 59 58 56 64 73 75 74 79 85 87 83 90 98 81 76 58 58
36 35 38 39 33 30 29 32 38 57 50 58 49 40 43 32 28 36 54 41 38 35 41 47 53 54 56 57 62 58 68 72 72 78 73 75 79 78 78 77 73 67 71 74
50 34 36 42 40 36 34 34 36 43 59 58 67 50 32 32 29 29 34 36 38 44 45 45 48 54 56 59 63 63 69 75 79 78 75 75 72 71 71 71 65 59 66 66
46 49 65 41 34 33 31 31 40 64 43 79 79 53 28 26 30 31 28 26 31 38 38 37 46 56 57 59 61 64 68 74 77 79 77 78 76 68 66 62 60 57 53 45
47 50 64 46 37 33 32 36 45 53 65 61 70 51 28 28 24 20 29 24 30 35 50 56 58 58 59 61 66 68 76 81 79 76 76 73 70 70 66 59 56 56 51 57
33 46 46 57 42 36 36 35 39 46 73 60 67 41 30 28 31 25 19 24 30 36 43 50 59 60 64 69 72 72 77 76 74 71 66 66 67 67 65 58 57 53 54 59
40 42 35 34 30 40 36 36 44 44 44 52 44 50 38 27 26 25 22 23 25 37 51 55 58 59 60 72 73 74 74 76 73 65 63 67 68 66 60 58 53 53 59 60
46 51 42 43 42 39 37 36 36 40 36 45 40 39 34 30 31 33 29 28 35 42 48 51 53 54 56 60 69 72 72 70 67 66 70 72 66 59 56 55 56 65 68 70
51 66 66 53 50 41 58 43 38 34 36 36 39 34 33 38 38 40 36 33 35 35 33 33 36 39 43 46 50 54 62 66 69 71 75 69 64 62 60 63 66 70 89 98
64 64 75 75 58 62 44 33 34 37 37 37 38 37 42 46 45 39 36 35 36 36 35 35 36 38 43 48 55 60 66 72 75 76 74 69 66 63 67 70 83 97 95 88
61 78 82 70 71 50 35 35 38 36 36 36 44 47 50 49 43 46 39 35 34 35 35 35 36 37 39 47 58 65 74 80 78 76 72 69 68 74 91 97 97 95 100 95
62 72 74 86 64 62 50 36 28 37 62 40 42 46 47 43 74 68 48 43 42 41 41 42 42 44 50 54 65 76 80 82 78 74 73 81 98 100 98 97 100 99 92 55
83 88 80 96 76 64 44 35 26 42 48 40 39 40 43 52 50 52 50 47 48 47 48 49 53 55 59 66 72 76 79 78 76 76 80 87 98 100 100 94 59 45 49 50
70 86 94 91 78 59 39 40 36 42 42 36 37 37 42 47 54 55 55 55 56 56 59 60 58 61 65 72 73 72 72 75 82 97 100 100 93 68 41 36 39 45 50 48
56 66 77 69 69 47 41 33 27 33 35 38 38 42 41 51 55 58 61 64 64 64 64 64 62 64 68 69 72 76 84 91 90 72 53 41 29 29 33 35 39 40 42 46
57 61 66 60 57 54 51 41 35 35 35 40 40 50 53 53 59 63 67 69 69 68 65 63 63 66 74 82 79 74 63 52 43 35 31 30 30 33 36 38 39 42 45 52
64 63 71 80 77 72 66 50 43 46 49 54 60 58 56 54 64 65 69 68 67 67 70 75 80 83 75 63 58 50 43 39 36 37 42 49 56 56 51 51 53 57 60 66
61 65 73 79 68 54 62 62 58 55 60 61 60 64 64 63 64 69 71 71 73 80 86 78 70 68 65 57 54 54 52 49 46 45 44 44 46 48 53 60 60 72 89 94

GFSCGP_850_rhum_036.txt.gz
RH
35 37 38 33 32 28 31 33 35 32 25 28 42 46 59 73 79 82 84 81 78 61 43 42 44 53 60 72 68 65 65 67 67 70 76 79 80 85 91 89 78 65 67 74
37 41 32 31 32 30 31 33 35 31 24 28 33 40 55 66 70 76 75 72 66 60 56 48 46 47 51 56 60 64 69 71 72 71 71 78 75 84 89 77 67 72 72 83
40 29 29 26 28 27 32 32 35 35 30 24 29 32 56 48 57 60 66 63 64 67 62 57 55 52 49 49 52 60 66 65 69 74 73 73 82 90 81 73 74 73 72 74
38 33 31 31 30 30 34 31 34 36 30 27 28 33 37 45 56 53 53 60 58 52 60 60 58 58 56 56 56 59 58 62 70 70 69 71 72 79 78 75 72 75 69 64
38 33 36 33 31 30 34 30 33 30 35 35 36 36 31 40 44 51 47 48 51 48 46 47 51 52 54 58 60 61 62 60 78 72 71 77 83 83 84 78 80 80 74 70
33 32 30 29 27 31 28 30 35 46 48 54 39 42 43 48 36 36 40 44 44 47 45 45 44 49 56 55 58 58 58 57 67 71 70 76 81 87 91 87 86 82 77 76
32 31 27 28 28 30 31 36 47 44 65 60 43 48 45 30 29 34 35 36 39 42 42 42 44 44 47 53 55 61 62 59 59 58 65 74 81 96 97 89 86 80 76 74
44 41 35 30 29 32 32 35 55 43 65 44 46 51 34 29 33 35 32 27 32 38 41 41 39 42 44 48 56 59 61 64 65 59 64 77 93 99 100 94 88 82 75 78
45 36 35 37 32 28 34 38 36 66 77 70 54 43 27 31 44 44 37 32 32 38 38 38 40 40 44 46 45 50 59 56 54 59 77 90 100 94 93 92 95 89 82 80
38 32 35 34 36 32 30 37 43 56 49 53 50 42 39 31 29 44 46 40 34 34 34 34 35 39 40 42 44 46 50 55 56 63 69 72 83 81 82 91 88 92 91 86
41 30 31 42 39 36 38 38 44 46 59 57 64 48 36 31 33 32 34 35 35 34 32 32 36 39 41 44 48 50 55 64 63 75 75 79 84 82 67 66 75 86 86 78
41 45 52 38 35 33 35 38 44 64 45 79 77 57 29 29 28 27 24 25 28 33 38 40 43 45 45 44 51 56 57 50 56 55 69 75 75 65 76 78 75 75 76 63
47 48 61 46 37 34 36 38 45 55 66 64 71 52 29 32 28 22 23 20 27 31 31 40 47 44 47 55 58 58 52 51 52 55 60 66 81 79 79 73 71 71 61 60
33 51 45 50 40 38 37 40 50 48 72 63 66 42 33 31 32 28 20 21 20 28 32 36 44 46 56 60 54 54 52 53 53 59 58 78 80 83 76 72 65 59 55 64
38 41 44 37 32 36 36 35 49 46 46 52 46 51 39 37 30 28 25 23 24 26 38 42 48 56 63 66 62 58 60 64 72 84 88 84 82 77 68 65 65 56 56 55
47 46 39 46 43 42 42 40 42 47 43 47 44 44 38 33 34 36 30 36 44 50 53 56 58 60 63 65 66 69 74 78 80 82 82 81 81 70 71 68 62 57 59 61
52 68 62 51 50 41 59 48 42 41 41 41 49 43 38 38 41 44 43 43 44 43 42 40 38 40 43 46 51 56 65 76 85 87 86 81 78 77 75 67 66 68 73 85
65 62 69 75 62 59 38 36 34 40 39 38 38 37 41 44 47 44 42 41 40 38 36 36 36 35 34 35 39 47 60 73 81 87 87 85 83 80 72 70 74 92 98 95
62 73 77 69 75 50 37 38 42 40 36 41 43 57 54 51 50 56 45 40 40 40 40 38 38 39 42 44 50 60 71 81 86 86 86 84 80 77 78 93 97 93 93 99
62 73 70 80 67 65 50 37 31 33 50 44 49 62 62 51 63 65 53 50 46 44 43 44 46 50 56 57 65 75 79 84 84 84 81 80 80 86 87 97 97 100 99 95
83 87 78 94 76 69 49 34 29 43 48 39 41 47 51 50 43 52 53 50 50 50 52 54 58 58 62 71 79 77 82 83 84 83 82 83 91 98 100 94 75 42 44 42
77 87 88 88 78 70 38 39 43 44 32 34 38 40 43 39 52 55 54 54 56 56 61 64 62 67 73 75 74 76 79 86 93 99 100 96 76 50 39 35 38 40 42 45
63 68 75 68 70 50 40 37 27 26 30 35 33 37 33 41 53 57 58 61 62 63 64 67 67 72 79 80 80 77 85 88 76 59 46 35 33 33 35 35 37 38 40 43
61 58 62 58 53 57 49 40 34 32 30 32 34 34 36 38 54 60 65 67 67 69 69 69 68 72 79 82 79 74 62 50 40 36 35 35 35 35 40 43 46 47 47 54
66 62 73 69 76 72 61 49 40 38 37 36 38 39 43 46 60 63 69 71 71 68 68 74 77 75 69 60 52 47 45 43 41 41 41 42 43 44 45 48 54 58 64 82
68 68 73 65 54 47 43 40 44 42 43 46 45 60 58 56 58 68 72 70 69 73 82 79 73 67 62 55 51 52 48 44 42 43 44 42 39 34 30 24 16 14 13 14

GFSCGP_850_rhum_039.txt.gz
RH
35 32 33 28 30 26 30 31 32 29 24 34 40 40 57 79 84 80 76 77 72 53 45 52 58 58 58 56 61 76 78 68 74 62 44 70 75 67 77 77 77 75 73 68
35 39 31 31 32 32 31 31 31 29 23 27 27 31 43 68 72 70 72 78 76 64 56 49 48 52 56 55 59 71 74 67 69 64 56 68 79 84 85 81 78 82 70 72
38 29 31 32 32 32 31 30 33 33 30 26 30 28 39 52 65 67 69 71 66 64 62 56 48 43 45 52 58 67 68 64 66 66 67 70 75 78 83 80 87 76 74 76
35 33 32 31 31 29 31 28 32 34 31 27 28 27 28 42 51 54 59 64 58 55 51 52 53 49 48 45 49 57 66 66 66 74 75 72 72 76 73 80 82 75 76 75
35 34 38 36 32 30 30 33 34 33 33 34 34 28 24 38 42 47 50 54 53 49 52 47 48 49 50 49 49 52 58 62 68 66 76 72 80 79 79 89 83 79 77 74
34 32 33 31 28 30 31 32 33 40 40 42 38 33 30 32 30 32 39 47 45 47 47 49 47 51 51 53 54 54 56 61 69 61 64 73 79 79 84 91 86 83 80 77
34 34 30 29 30 31 31 34 39 36 50 43 43 42 31 26 28 28 29 35 42 41 42 42 43 43 48 47 50 54 58 62 63 66 63 71 76 83 88 92 91 90 85 83
36 38 33 32 29 32 36 33 44 42 48 35 43 40 23 27 28 36 38 34 30 34 39 40 40 39 39 41 43 51 62 58 66 67 58 62 67 76 90 100 98 92 91 88
47 38 34 37 32 27 34 36 35 58 70 57 42 34 24 27 30 36 39 35 30 29 28 28 35 40 41 41 42 43 50 61 63 56 53 59 68 71 79 95 99 99 95 92
38 37 36 35 36 36 32 33 42 49 54 55 41 39 26 24 26 30 32 35 30 26 28 33 36 39 41 44 46 47 49 54 59 58 57 62 66 76 94 99 99 97 99 93
40 31 33 42 39 34 37 38 42 39 48 46 47 35 31 25 25 30 31 29 30 28 26 27 29 35 40 44 46 47 52 54 49 52 60 65 64 71 77 73 77 90 99 94
38 44 46 33 35 32 33 37 40 52 46 59 58 40 26 29 27 27 27 25 31 29 29 30 30 33 37 39 43 45 46 50 52 56 58 49 54 59 62 65 70 92 100 100
44 43 43 35 35 34 38 38 43 48 55 58 67 41 26 28 27 27 26 22 23 26 29 32 32 35 43 45 48 51 54 54 56 56 56 56 58 62 68 86 79 91 99 99
31 49 41 36 34 36 43 42 44 44 57 53 51 37 29 26 29 27 27 23 22 21 30 40 49 47 47 50 52 55 58 56 54 56 60 72 82 97 96 91 84 84 86 90
40 44 47 37 33 34 35 40 46 41 44 49 38 41 31 30 29 30 29 27 32 38 50 54 57 62 63 63 69 70 69 73 79 84 88 92 89 88 86 85 81 76 67 56
48 45 43 41 44 41 44 39 44 43 44 41 40 40 33 32 33 37 35 46 56 57 58 59 60 61 64 66 66 72 78 81 83 86 87 91 88 85 84 81 69 64 60 70
54 65 57 49 49 42 59 48 40 40 42 42 46 34 35 35 39 46 56 54 54 53 50 45 43 42 43 45 46 48 55 62 70 80 87 89 88 87 84 75 72 72 71 74
62 61 62 67 61 64 37 37 35 39 37 36 36 34 34 38 56 51 49 46 46 46 43 39 37 37 37 39 41 47 54 62 72 82 91 92 89 85 83 81 78 80 79 75
56 68 72 73 60 47 37 37 38 39 28 31 33 36 45 59 56 59 50 45 42 42 41 41 43 44 47 49 51 54 59 71 80 84 86 87 86 84 83 81 91 89 93 95
63 64 64 71 63 62 45 35 34 30 42 36 38 50 55 57 54 49 54 50 47 47 48 50 53 55 55 57 62 63 68 79 82 85 85 84 84 86 88 89 99 100 99 96
72 75 70 74 70 62 45 35 30 45 37 38 43 51 55 48 41 46 53 54 55 56 56 59 61 59 63 70 74 68 78 79 83 83 85 86 90 97 97 82 47 36 38 38
68 73 81 77 78 63 40 38 44 43 28 30 43 48 55 40 51 55 58 59 61 59 62 64 62 66 73 75 72 74 76 85 92 98 99 88 60 38 32 30 31 31 33 36
70 63 62 59 63 51 36 32 26 24 24 32 38 42 42 46 58 60 62 64 65 64 66 68 65 68 75 78 77 77 92 96 81 62 45 35 32 32 33 34 36 37 44 50
63 58 63 59 51 50 39 31 32 29 26 31 35 37 42 39 57 64 67 68 68 70 71 73 72 74 77 81 82 75 64 52 43 38 35 35 36 38 39 41 43 44 45 43
66 61 63 60 55 66 49 42 34 34 32 34 37 38 38 39 59 61 66 69 71 74 75 74 73 74 71 62 55 50 47 46 40 37 37 37 34 26 19 14 10 8 9 11
64 61 66 62 38 36 32 28 34 36 33 36 35 45 48 46 51 63 68 73 75 75 78 78 74 68 64 57 50 47 44 40 37 31 22 18 13 10 8 8 7 7 9 12

GFSCGP_850_rhum_042.txt.gz
RH
28 25 20 15 14 17 19 17 18 18 18 22 21 22 24 41 50 44 42 47 55 53 61 80 85 85 85 90 89 93 98 96 96 89 91 76 71 82 97 80 79 73 75 73
28 26 21 23 22 23 23 20 20 21 20 21 16 18 20 30 44 44 41 44 47 50 57 62 74 81 83 84 91 93 93 96 96 98 96 78 80 80 88 83 74 78 76 77
25 22 24 24 24 26 24 23 23 23 23 20 22 20 24 30 40 46 46 40 43 46 50 59 62 68 78 77 83 88 92 98 98 96 95 84 89 98 97 77 77 75 74 81
24 22 24 24 23 23 24 20 22 25 25 22 22 22 20 22 33 37 39 44 37 42 49 51 57 59 64 71 76 82 88 93 96 98 92 94 80 79 93 83 73 72 79 80
24 25 27 24 21 22 22 23 24 25 23 24 22 19 17 22 20 23 30 36 37 34 40 46 50 54 60 66 75 82 86 93 95 97 96 97 92 83 86 98 84 75 81 78
20 25 22 21 22 21 24 25 26 28 25 30 22 22 18 16 14 14 18 26 34 38 40 40 43 52 57 65 72 71 73 83 92 99 77 84 86 96 92 74 74 81 85 81
25 24 20 23 25 25 24 26 34 33 34 33 28 27 18 15 17 18 18 19 26 33 38 41 43 46 53 63 76 63 55 66 76 60 59 62 67 72 74 77 76 80 87 84
27 29 22 21 23 22 24 24 32 37 36 27 31 27 18 17 19 21 25 27 28 26 32 36 42 44 49 60 76 75 54 65 59 63 67 71 68 70 82 100 100 97 92 91
25 23 22 23 22 20 27 30 23 34 46 34 22 19 15 17 18 19 21 27 27 27 27 31 37 42 49 59 73 86 87 80 78 62 68 51 50 62 79 99 100 100 99 100
24 29 26 30 27 28 26 23 32 29 40 38 25 24 17 16 14 16 15 17 24 31 32 35 38 41 50 56 73 89 91 88 97 74 62 61 61 64 75 87 91 95 100 99
19 24 33 32 30 24 30 29 28 26 30 35 35 24 15 15 15 18 17 19 22 26 33 40 44 51 58 63 73 85 88 86 90 86 80 69 67 72 76 71 73 75 78 84
21 24 34 25 25 24 19 22 25 33 31 36 43 29 14 15 18 18 18 21 25 30 31 40 49 58 55 53 68 78 82 84 88 96 97 74 70 67 65 66 70 76 86 95
26 28 35 30 28 27 25 23 22 28 37 36 51 31 18 19 20 19 20 20 23 29 34 44 56 60 61 63 69 76 66 84 87 77 65 64 60 60 66 70 74 82 94 94
26 24 28 31 23 18 29 25 24 28 39 33 36 24 18 17 17 16 18 23 24 24 28 42 56 62 70 70 62 66 65 62 60 66 72 75 78 86 91 88 98 100 99 100
27 28 25 20 16 16 17 18 26 28 28 30 27 22 19 15 16 14 25 26 32 38 46 55 58 67 74 84 78 88 81 85 87 86 86 86 93 91 89 88 89 88 87 91
27 27 30 30 23 23 22 20 18 23 21 24 24 22 15 17 22 24 27 34 42 52 58 63 68 74 82 85 89 82 81 81 80 76 79 84 88 87 85 84 82 81 76 71
38 34 37 32 30 30 46 35 24 23 26 26 27 20 16 19 23 25 32 41 49 58 64 68 71 70 67 55 59 61 63 68 71 74 80 85 87 86 85 84 81 74 70 66
47 44 41 42 64 71 22 24 21 23 22 20 22 19 18 20 23 37 41 47 54 58 63 66 64 52 47 45 45 49 55 63 71 80 85 88 88 86 84 82 81 80 80 93
39 44 53 73 47 27 29 30 28 29 24 18 19 18 18 29 40 47 53 50 56 64 64 59 57 56 54 52 56 58 65 74 82 89 90 90 88 88 89 83 87 94 96 94
47 50 52 59 49 62 24 20 23 22 34 16 19 21 23 37 42 28 57 61 62 60 59 58 58 60 57 60 62 62 72 79 84 91 95 98 99 99 99 98 94 99 97 91
64 62 70 57 60 37 28 26 26 37 32 22 20 23 32 38 30 45 58 65 67 65 61 65 71 69 72 77 78 83 86 87 89 86 84 86 93 98 91 80 65 65 70 54
57 62 74 55 76 65 31 30 30 25 34 28 31 30 37 43 57 61 63 69 71 73 74 81 83 85 89 84 74 70 69 78 84 95 98 84 53 36 35 32 34 33 59 59
65 46 47 44 42 29 33 23 26 32 26 33 32 36 42 59 60 64 68 72 73 75 79 84 85 86 92 90 82 74 85 94 90 73 49 36 31 27 26 35 44 73 79 79
49 56 63 53 28 35 36 30 35 34 31 33 34 42 56 54 62 66 71 74 74 76 79 83 84 84 85 84 84 81 74 63 50 41 33 29 29 38 29 37 26 40 43 42
36 50 47 45 33 42 43 38 33 40 38 30 38 46 51 54 61 66 71 74 74 76 83 84 87 88 85 80 71 58 49 50 42 33 32 29 20 15 16 22 12 10 20 8
44 42 55 53 31 35 25 32 39 41 36 31 41 54 55 53 54 66 71 74 78 82 85 87 90 80 71 61 53 49 44 41 34 26 19 15 12 12 15 27 52 25 10 10

GFSCGP_850_rhum_045.txt.gz
RH
21 22 22 15 12 11 13 14 17 19 13 15 17 16 26 29 32 29 35 38 48 60 67 78 74 76 71 72 77 80 88 84 83 89 80 71 67 65 66 72 80 88 95 78
21 26 15 14 14 14 15 15 14 13 14 16 15 19 13 22 27 28 28 34 36 40 59 73 73 62 73 69 73 77 82 86 95 93 86 72 66 59 66 74 93 90 97 98
22 18 17 17 16 18 17 18 21 17 18 15 15 16 14 16 24 27 27 29 35 37 41 56 61 60 61 63 67 70 73 78 82 79 80 73 66 62 67 73 83 88 98 96
18 16 19 18 18 16 20 14 17 18 19 22 19 30 33 16 22 26 27 27 28 32 36 41 49 61 63 64 66 69 70 73 81 78 76 72 64 66 72 74 89 99 100 98
20 19 21 20 18 16 18 18 19 19 21 20 17 16 22 14 17 20 23 26 25 27 31 37 41 42 56 64 66 72 71 70 74 79 76 74 73 68 70 75 86 97 100 100
17 15 15 16 14 16 16 21 20 20 21 31 18 17 28 15 12 10 16 22 25 24 28 33 38 41 43 49 61 69 72 70 70 74 80 82 79 80 73 76 90 91 100 96
19 19 16 16 21 18 20 24 33 33 32 33 26 19 17 32 11 12 12 14 20 25 26 28 32 37 42 47 55 63 68 65 71 77 81 84 82 68 65 89 96 91 96 94
25 26 19 17 19 21 22 22 32 65 34 27 24 21 17 13 13 13 14 16 16 20 26 28 27 30 36 44 53 64 66 68 67 83 86 53 58 52 57 60 74 85 81 90
22 22 13 14 16 17 20 25 19 34 28 30 21 15 12 11 11 12 13 18 19 20 20 24 27 28 32 39 49 62 71 71 71 83 86 71 62 56 59 56 73 81 96 99
17 24 16 17 18 17 20 18 29 26 39 45 21 19 17 15 13 12 11 13 17 23 22 21 24 26 31 37 44 58 75 77 84 87 93 71 72 63 58 59 72 96 99 99
16 20 21 23 26 24 23 26 23 22 28 41 36 22 16 13 12 13 13 13 14 16 26 29 29 30 33 37 44 58 73 75 86 97 92 96 74 76 76 76 97 100 100 99
16 21 31 28 19 17 18 21 22 32 30 29 33 29 14 13 12 14 14 15 16 18 20 27 36 42 45 48 49 60 72 74 72 84 88 99 98 97 86 97 100 100 100 100
18 22 34 27 24 21 22 20 18 21 23 32 54 33 14 13 14 14 14 14 16 19 21 28 38 46 51 56 60 66 72 72 72 76 86 93 99 99 99 98 100 100 100 99
22 21 27 33 28 21 24 20 18 20 36 33 28 21 16 15 15 13 13 15 17 18 19 25 36 44 51 63 69 76 80 82 84 86 91 99 100 97 96 100 100 100 100 99
24 26 22 20 18 17 18 19 18 20 20 28 23 19 16 14 14 12 18 18 17 21 23 25 36 44 56 69 74 84 94 96 95 92 95 100 100 100 100 100 98 97 98 100
22 29 24 24 20 17 18 15 14 14 16 17 16 17 13 11 11 12 15 18 21 26 33 41 44 54 64 76 80 91 95 98 97 94 98 98 96 95 95 94 89 87 84 85
26 33 31 38 23 22 33 21 16 15 14 17 22 17 14 13 12 14 18 19 27 36 43 50 56 64 71 79 85 90 91 91 89 88 90 90 88 85 83 82 81 78 73 69
35 35 34 45 58 57 24 16 15 17 15 14 15 15 13 13 13 17 22 24 37 45 52 58 63 67 72 74 77 79 79 81 82 83 85 88 87 85 83 82 79 78 80 85
31 42 47 59 48 30 20 18 19 19 18 13 14 14 13 13 20 29 30 32 42 50 52 55 59 63 66 69 71 72 74 78 80 84 86 88 89 94 95 98 85 87 97 97
37 39 56 52 52 56 28 18 16 14 30 14 13 14 15 17 35 21 37 42 49 53 55 59 62 64 67 69 70 72 74 77 80 83 87 90 92 95 100 99 98 91 83 68
69 66 75 63 55 34 19 15 15 34 30 15 15 15 15 18 23 29 43 52 52 54 58 63 64 65 69 72 72 72 77 80 85 91 93 89 91 88 89 89 81 74 70 71
64 60 74 59 61 66 24 23 28 24 19 22 21 17 19 21 42 45 49 51 53 56 63 63 67 72 73 73 75 79 85 94 92 83 83 84 70 59 63 64 64 61 66 76
54 49 54 41 40 30 28 24 23 18 18 23 22 21 24 36 45 48 49 52 55 58 60 66 71 77 79 80 85 87 92 88 85 76 66 62 61 60 62 64 68 61 64 68
24 38 53 41 32 28 31 30 26 27 25 25 26 24 29 42 46 48 51 54 56 56 61 66 74 79 82 81 81 86 85 77 72 69 69 66 61 62 55 50 46 50 62 54
32 38 42 37 25 26 25 30 31 28 30 29 29 27 32 44 46 48 52 55 54 56 62 71 75 78 76 76 77 74 71 68 66 66 63 60 40 44 45 48 41 28 14 6
25 34 48 46 25 32 34 29 29 32 31 37 36 31 38 43 46 49 53 56 56 60 68 73 77 78 79 79 77 74 69 64 63 58 50 44 36 37 43 46 46 30 21 11

GFSCGP_850_rhum_048.txt.gz
RH
18 23 25 20 16 13 11 13 19 20 19 26 16 18 55 55 41 31 36 49 54 64 79 84 79 74 76 66 73 65 67 61 63 63 62 87 74 74 68 67 66 76 73 64
21 27 19 16 15 14 13 14 14 12 16 15 12 15 38 62 44 27 33 43 48 56 78 74 69 73 78 77 68 73 77 86 86 82 83 85 75 66 66 68 67 76 83 80
24 20 16 16 17 16 15 15 16 23 17 15 15 15 21 26 22 24 28 34 44 50 67 76 72 69 73 78 74 80 78 79 91 82 70 85 68 66 61 64 70 78 81 83
19 15 17 19 16 13 17 13 14 17 18 21 18 28 19 17 31 23 23 29 34 37 61 68 75 74 72 70 72 76 79 79 76 77 82 70 76 67 61 61 75 76 75 80
22 18 17 22 17 14 16 17 18 18 19 20 22 28 18 17 23 23 24 26 31 35 38 60 62 64 66 64 70 67 70 71 76 75 87 80 76 64 62 64 64 72 77 82
17 14 15 17 15 14 14 17 20 20 22 34 21 20 31 28 32 19 21 24 25 30 33 39 48 56 59 60 64 65 66 68 72 72 66 77 77 70 67 74 75 74 79 80
18 16 14 14 17 15 16 22 36 38 39 41 19 22 25 23 23 17 18 21 24 25 28 33 39 43 53 58 61 65 69 69 70 71 73 67 75 74 69 70 75 78 75 90
25 28 17 16 18 21 21 22 40 65 69 52 32 26 18 17 13 12 12 13 20 24 25 29 34 40 41 45 58 63 68 67 71 69 74 75 51 52 47 69 76 70 60 66
25 24 14 15 15 17 21 27 21 50 47 56 41 30 19 13 12 12 13 14 16 16 24 27 29 35 40 41 44 51 61 70 70 70 71 66 49 49 68 75 63 66 63 71
22 29 16 14 14 16 18 17 31 28 52 56 24 19 21 17 13 12 11 14 17 20 20 21 26 28 33 40 42 45 50 58 65 66 70 74 67 66 73 78 69 72 70 81
19 24 23 16 19 20 21 24 30 27 29 49 49 31 38 22 13 14 13 13 14 16 24 24 23 24 28 32 42 47 52 62 67 69 72 75 78 77 81 77 82 86 99 100
20 27 33 22 16 17 18 22 25 39 39 42 64 38 17 19 14 13 14 14 14 16 19 28 30 30 29 31 36 51 56 65 68 70 75 75 83 91 96 96 87 99 99 99
22 27 39 28 27 20 22 20 20 24 28 39 66 41 15 14 14 13 14 14 15 16 17 22 33 39 41 43 42 45 58 66 68 72 82 93 94 96 99 100 100 98 100 100
29 26 29 43 35 24 26 22 25 30 49 45 39 29 20 16 19 14 15 13 14 15 17 18 31 40 47 51 54 58 66 71 71 71 77 85 88 98 98 99 98 100 100 100
30 37 29 24 20 20 22 22 20 22 21 32 29 24 19 16 19 20 17 17 16 16 16 18 22 39 51 61 65 72 74 73 73 80 87 99 98 98 99 98 99 99 99 98
26 36 33 38 23 21 26 26 18 18 18 17 18 20 13 12 14 16 11 13 17 17 17 22 23 39 55 65 72 83 87 88 90 90 94 95 98 98 98 99 99 100 95 98
36 42 40 48 29 26 36 27 20 18 15 16 21 19 14 14 15 13 12 14 16 19 26 33 36 48 62 72 82 90 94 95 94 95 97 98 98 96 96 97 94 90 83 79
41 43 48 67 61 57 27 20 17 19 17 15 14 12 13 13 13 12 15 16 22 28 36 43 50 61 72 81 87 91 92 91 88 88 88 86 86 85 84 84 81 76 74 74
37 47 68 67 56 39 25 22 22 24 23 15 16 14 12 11 16 19 22 23 27 37 45 53 60 69 74 77 83 80 82 81 80 78 78 82 84 86 88 84 79 78 80 97
38 48 64 73 64 63 37 23 18 18 34 17 15 17 17 14 33 24 26 30 38 46 52 57 63 68 71 72 73 74 76 77 80 82 83 87 90 91 95 92 93 93 97 89
68 70 82 72 75 56 24 20 18 37 36 19 16 15 16 20 20 22 27 38 44 48 52 57 61 63 66 68 70 72 75 77 80 84 87 90 93 89 88 80 70 74 76 80
88 83 88 75 76 72 25 23 30 28 19 19 18 19 18 18 24 28 36 44 48 50 54 59 60 63 66 68 69 72 76 81 84 82 80 80 79 80 79 71 67 62 64 69
71 60 75 51 52 41 26 28 22 20 22 22 23 21 21 24 35 39 44 48 48 50 57 58 63 67 69 69 70 77 83 81 78 80 78 66 58 60 62 66 64 68 72 75
27 40 59 54 46 45 33 29 26 26 28 27 26 26 24 28 36 43 46 48 49 51 57 60 66 71 72 74 77 83 90 89 81 68 64 63 61 57 59 58 50 54 50 45
36 28 41 43 37 30 25 34 40 32 31 30 28 28 28 28 41 44 46 48 52 53 55 61 70 75 79 80 82 86 86 75 69 69 67 65 60 49 44 46 42 31 26 16
29 32 43 57 32 36 38 36 35 29 26 26 30 32 32 30 40 44 47 49 52 52 58 66 73 77 77 78 79 75 71 68 66 64 64 50 37 42 46 40 36 28 24 16

GFSCGP_850_rhum_051.txt.gz
RH
22 30 36 31 27 23 22 20 18 17 22 25 53 56 56 57 68 58 65 82 85 89 92 85 87 88 99 97 94 93 99 90 85 81 76 67 64 63 55 51 45 49 48 49
28 32 25 22 23 23 23 20 20 21 20 29 48 58 58 62 68 52 61 69 70 79 86 81 76 74 80 76 79 87 91 89 76 72 57 55 59 66 64 49 58 70 71 68
32 28 22 23 25 24 21 20 22 24 21 21 21 63 62 52 52 44 55 58 62 75 78 80 66 59 65 66 61 58 62 69 61 56 57 61 80 81 73 66 66 67 67 78
29 23 23 22 24 21 22 17 21 25 24 30 21 38 56 50 59 59 44 54 59 75 72 78 69 66 65 62 57 58 56 54 55 58 61 68 84 91 73 57 65 70 73 75
30 25 25 26 24 20 21 21 22 25 30 33 29 38 29 46 60 62 45 52 52 71 65 74 70 65 64 65 69 68 64 67 71 73 75 72 75 78 65 63 58 66 67 73
24 18 20 22 20 20 19 22 24 26 33 50 32 34 38 33 32 40 35 40 50 54 65 62 57 65 66 64 66 69 73 70 69 58 66 78 77 82 74 66 64 60 75 81
27 22 18 17 23 20 22 26 50 70 62 62 36 35 40 30 29 28 30 35 39 47 54 59 68 66 67 70 69 69 70 71 71 66 67 70 80 75 72 66 63 69 71 81
38 39 23 18 21 26 28 30 64 73 86 67 44 43 31 24 23 19 21 26 33 39 47 47 53 58 61 64 68 73 69 72 70 70 72 71 62 62 75 61 72 75 75 71
35 32 18 16 17 20 27 35 31 63 67 77 56 39 25 22 18 14 14 16 27 34 37 44 43 46 50 58 62 64 67 66 68 69 73 70 68 66 66 71 77 71 68 70
29 36 22 18 16 21 22 24 37 56 77 96 48 45 40 33 20 14 13 16 20 26 31 35 37 37 39 42 46 56 60 61 64 71 72 72 70 70 74 63 76 66 67 73
23 31 33 26 25 25 29 29 30 42 59 64 59 49 41 25 22 17 17 15 18 18 23 29 33 40 36 39 45 54 68 75 69 64 65 71 72 74 73 64 64 69 79 74
23 36 42 30 22 17 22 28 33 66 53 64 76 57 26 25 22 22 17 13 14 21 22 20 26 32 37 44 50 52 44 55 61 66 70 71 72 72 81 81 76 74 80 81
26 39 44 42 29 22 23 24 27 37 53 70 78 64 26 25 22 14 17 16 16 16 21 27 21 23 31 41 48 51 48 47 52 57 74 73 79 75 86 86 91 91 96 92
23 36 41 44 39 34 36 31 27 36 61 56 68 44 34 28 25 17 16 16 16 16 16 27 30 26 24 33 54 60 62 61 65 71 69 64 64 80 82 92 98 98 100 99
34 40 32 34 27 28 30 31 28 31 39 56 45 37 31 26 25 22 20 17 17 18 17 22 31 33 34 33 51 64 69 76 68 66 71 73 74 84 87 93 96 100 100 99
38 49 38 40 32 31 29 24 30 32 30 35 34 35 28 20 18 20 17 18 18 16 16 16 18 38 47 48 48 61 69 69 65 60 65 73 85 100 97 94 97 100 99 100
54 54 56 53 36 35 48 39 29 32 29 26 33 27 21 20 21 20 20 18 18 17 17 18 21 42 53 57 59 63 64 71 79 78 84 96 99 98 95 98 99 100 100 100
86 54 66 72 56 60 33 25 26 30 27 22 18 17 17 17 14 14 15 14 16 18 21 27 29 46 56 60 66 70 78 86 90 95 100 98 95 99 100 100 100 95 89 85
74 71 75 66 57 48 36 27 27 28 31 22 20 20 17 14 16 23 19 19 20 23 28 34 42 54 63 70 74 81 92 90 93 95 97 96 94 94 98 98 92 84 77 74
76 68 82 82 68 65 45 32 25 27 42 26 24 26 23 19 38 34 23 20 25 28 33 40 56 67 72 81 85 88 89 90 89 87 87 86 85 85 84 85 83 82 86 93
83 89 82 96 91 75 40 28 22 46 40 23 22 21 21 27 34 18 23 24 25 29 40 49 57 68 76 81 82 82 83 84 82 78 78 83 82 83 84 85 86 83 87 86
90 87 91 93 98 89 52 39 37 39 22 20 19 22 22 19 20 21 24 25 32 37 46 50 58 69 74 75 75 77 77 78 79 80 82 85 86 87 83 74 70 74 78 76
82 79 86 72 77 55 48 53 50 39 32 28 31 28 30 30 30 27 28 31 37 43 51 57 61 66 69 70 71 73 77 80 82 82 84 88 90 81 70 69 73 76 73 68
55 59 68 66 52 39 25 28 30 40 49 38 33 28 31 34 38 34 37 39 45 49 53 57 61 65 68 70 71 72 76 80 81 85 87 81 72 73 69 64 61 62 68 73
54 55 59 58 46 38 31 26 26 35 41 34 34 29 30 29 31 30 37 41 46 49 55 59 63 67 70 71 73 76 78 83 88 83 72 61 60 63 67 67 63 66 64 54
43 49 71 76 44 44 38 31 33 35 36 38 40 31 32 31 34 37 39 41 47 51 56 60 66 70 73 76 79 83 85 87 78 68 64 63 62 58 54 51 45 45 36 23

GFSCGP_850_rhum_054.txt.gz
RH
24 32 40 34 33 28 28 30 32 24 23 40 50 49 49 56 64 88 95 93 75 65 77 87 89 94 99 99 99 96 98 92 91 80 64 59 56 66 63 54 47 54 64 67
29 35 28 28 29 30 31 33 32 22 23 26 51 51 51 57 64 64 84 93 86 76 79 83 87 94 98 99 99 98 98 87 79 78 78 77 73 62 58 60 52 53 51 47
33 29 24 27 28 31 32 34 29 23 23 23 45 50 63 55 58 58 72 75 82 62 63 77 83 90 98 96 88 86 92 90 78 84 83 74 65 59 56 50 47 48 47 46
34 23 26 30 31 28 36 25 22 25 28 32 25 39 57 61 58 58 63 77 78 78 64 63 68 78 77 75 85 85 87 76 75 82 79 78 64 56 57 53 45 45 47 50
37 32 32 33 29 26 31 25 25 26 31 33 32 39 36 56 62 60 57 67 72 64 60 60 57 54 55 64 67 70 76 82 78 75 56 58 56 59 59 59 46 48 45 63
27 22 26 27 24 25 22 22 30 37 39 51 38 39 43 65 49 52 48 56 67 71 63 62 53 55 52 57 58 55 51 64 73 62 52 54 59 64 63 50 62 59 52 67
28 27 23 22 25 23 24 33 49 53 65 61 40 47 42 40 40 45 45 51 57 68 65 68 66 64 62 60 58 56 54 50 51 50 52 58 60 59 60 68 70 67 59 58
44 48 28 23 25 28 30 34 57 57 83 66 50 49 32 26 28 38 41 39 47 58 64 64 64 56 60 61 64 66 63 60 57 57 57 57 59 60 60 70 75 75 67 63
48 40 24 21 21 25 29 36 35 63 68 74 60 46 31 22 21 25 36 36 41 53 55 58 63 62 56 58 59 61 62 63 63 62 63 55 51 60 71 75 79 81 71 68
32 46 28 22 20 22 26 28 44 60 70 68 64 52 43 29 21 19 24 30 36 42 49 50 62 58 54 53 54 59 62 63 60 61 61 60 60 60 65 70 72 76 74 72
29 37 37 29 32 30 30 32 36 46 64 67 66 50 43 36 27 21 18 22 27 33 41 46 47 47 45 53 61 65 74 71 72 72 66 66 70 73 76 76 73 71 77 82
30 35 41 34 27 25 26 31 37 55 56 64 75 50 31 29 24 21 20 19 22 22 25 31 34 40 44 52 66 69 74 74 62 59 38 44 74 83 83 89 87 82 66 85
32 42 53 40 31 27 29 29 29 42 58 66 74 60 33 31 28 21 20 18 18 21 24 27 29 32 35 42 50 56 58 56 54 57 59 55 78 88 94 72 78 83 77 73
52 43 37 46 42 36 36 30 28 38 70 58 62 46 36 32 27 24 20 17 16 20 22 26 32 32 31 34 39 44 50 58 62 63 56 61 56 83 74 72 63 88 92 93
57 47 39 33 31 30 29 33 35 36 40 50 43 45 37 36 32 28 19 17 18 18 20 25 28 37 39 40 37 38 44 48 53 65 60 64 58 68 81 78 71 83 100 100
70 75 40 48 34 34 36 28 32 32 34 40 40 44 32 26 24 25 21 19 18 16 16 17 21 27 38 33 32 31 37 49 54 55 61 60 63 71 69 66 84 100 95 95
85 92 87 55 38 35 50 40 36 30 35 36 43 40 30 29 30 27 22 20 17 18 16 18 19 22 35 36 35 38 41 48 57 65 63 66 70 76 76 81 95 96 99 97
78 86 90 76 59 65 36 26 28 32 28 33 26 22 25 23 17 19 20 16 14 15 17 17 16 18 34 47 50 52 61 62 55 56 64 68 78 87 99 98 99 97 100 99
74 88 99 84 65 46 39 31 34 37 35 28 24 21 21 16 19 21 16 14 14 14 18 17 17 20 32 52 59 66 73 75 76 78 94 100 98 100 100 99 99 100 98 100
85 74 90 94 92 64 44 33 27 27 51 28 26 25 28 24 35 34 19 17 17 17 18 19 23 30 44 58 66 70 74 82 88 95 100 100 100 100 98 100 96 92 89 86
98 99 97 98 99 80 53 45 23 44 40 26 26 24 21 32 32 16 18 21 19 19 20 25 29 34 47 62 71 77 83 88 90 90 94 96 98 97 94 91 89 83 79 78
89 98 99 98 99 90 50 45 38 51 44 33 32 31 28 26 21 16 21 21 21 24 30 34 38 55 67 74 78 85 87 87 88 91 92 92 89 86 84 82 82 82 82 87
74 72 89 90 94 56 49 48 48 38 46 44 44 42 33 31 27 21 22 24 27 30 31 39 50 63 73 76 80 82 84 84 86 87 81 76 80 83 83 82 86 95 99 97
61 53 85 78 61 56 42 42 30 30 31 31 40 42 39 34 30 28 25 29 35 40 40 43 55 64 70 76 77 79 77 81 79 75 77 84 87 93 97 93 89 89 86 88
55 70 66 66 54 43 37 29 25 24 27 29 33 40 38 36 34 36 34 37 40 42 48 49 53 61 67 71 74 76 76 77 79 83 90 96 99 96 85 83 88 82 86 82
59 69 77 74 48 46 37 24 26 24 25 30 34 34 36 35 34 34 34 39 41 45 51 56 59 62 67 71 73 76 78 79 80 88 95 93 87 82 74 69 73 78 78 78

GFSCGP_850_rhum_057.txt.gz
RH
26 34 40 31 33 30 28 31 34 31 25 39 48 49 51 66 78 95 90 96 85 65 84 84 82 91 98 99 96 98 99 99 96 81 74 86 89 80 64 60 82 68 58 49
31 39 26 30 31 33 34 37 38 32 26 39 36 38 49 65 71 86 88 87 84 82 86 81 81 91 98 99 99 96 99 100 90 80 88 83 89 86 67 66 63 66 61 60
40 31 26 30 33 36 37 40 38 38 28 32 42 38 57 52 58 64 81 76 72 69 77 75 69 86 99 98 97 99 99 100 89 73 82 78 69 62 62 67 65 59 56 63
39 28 29 33 32 33 40 32 32 30 32 37 29 44 33 60 57 65 64 77 77 73 71 59 49 56 68 94 100 100 100 99 92 88 87 74 60 61 62 59 59 52 52 50
45 37 35 33 30 31 37 32 35 34 36 35 34 41 36 62 59 51 62 67 67 65 61 53 49 39 49 57 71 82 90 95 86 76 76 71 63 62 59 60 59 52 47 47
32 26 30 32 29 30 28 30 34 43 44 52 38 40 46 66 54 40 49 59 61 62 63 51 51 44 41 47 59 73 75 72 71 67 71 75 78 74 66 61 58 54 48 45
31 31 26 23 29 27 31 34 52 50 62 62 44 50 44 36 42 36 44 52 55 58 64 52 57 50 45 47 48 56 66 69 67 65 69 76 72 73 65 54 51 47 43 42
39 47 32 28 29 31 35 38 60 54 72 54 52 55 41 31 26 31 36 37 48 63 59 59 51 53 43 45 46 48 48 50 63 64 62 55 54 54 47 48 51 49 48 54
51 46 28 26 24 26 34 42 35 60 73 79 61 47 35 28 27 38 45 43 47 52 57 53 57 54 52 46 47 42 46 45 44 52 54 48 47 48 50 53 57 61 63 70
36 45 32 25 23 25 28 32 47 61 75 74 59 54 50 36 27 30 34 47 42 45 51 55 58 55 51 49 47 54 50 44 47 49 47 45 46 50 54 56 55 60 64 72
32 39 38 30 35 33 34 38 39 49 63 64 66 57 44 38 34 27 24 22 34 37 38 43 45 51 52 51 51 54 58 58 53 45 46 45 44 39 46 54 51 52 63 74
40 47 47 36 28 26 27 36 39 55 54 68 75 46 30 35 35 29 23 17 19 29 26 30 32 43 65 59 56 52 54 59 59 56 55 52 57 56 58 62 57 60 61 76
53 50 51 44 36 32 34 33 34 48 59 68 67 55 34 35 31 26 24 21 18 21 32 34 36 44 47 51 56 57 55 53 55 61 62 64 63 78 69 68 72 77 68 59
62 54 48 55 43 37 38 33 32 40 61 50 57 41 36 34 32 31 24 20 18 17 22 26 30 32 34 36 40 46 47 50 56 61 64 64 67 67 72 71 71 83 81 81
69 79 71 48 35 32 34 37 36 39 40 46 39 51 35 35 34 30 22 23 21 17 19 24 24 26 26 30 34 37 37 42 55 71 77 70 67 69 75 78 75 77 79 72
67 86 89 67 43 37 38 33 32 34 39 43 40 44 37 31 28 30 24 22 21 16 17 23 24 25 26 26 26 27 28 32 42 55 63 75 76 72 75 71 71 85 89 99
73 84 92 92 73 48 58 42 34 36 37 40 50 44 33 33 35 32 26 25 21 19 16 17 21 28 27 26 26 27 26 30 34 43 56 66 74 78 82 76 80 87 78 100
85 86 96 99 82 91 50 33 30 36 33 33 34 31 28 29 23 24 22 21 21 18 18 16 17 18 24 30 29 30 35 36 38 48 56 62 71 79 79 73 77 84 100 100
74 88 99 98 96 82 52 38 35 39 36 31 34 31 24 20 21 22 17 14 15 18 17 16 17 17 19 28 28 33 41 45 47 52 59 61 65 72 82 92 100 100 99 100
84 81 82 99 95 85 61 42 32 31 48 32 31 32 31 28 41 38 19 19 15 14 14 14 16 19 22 21 25 36 48 52 54 58 57 57 63 92 100 99 98 100 100 99
90 98 92 94 95 88 65 56 56 69 53 39 30 27 28 36 28 21 20 18 20 18 17 17 19 18 20 26 33 48 60 64 65 70 73 77 90 98 100 100 100 100 100 100
89 96 94 96 99 92 64 68 90 66 43 45 46 46 46 34 24 24 23 19 18 22 18 18 19 19 21 27 43 58 70 79 85 88 92 99 100 100 100 100 99 100 100 100
75 74 91 87 84 72 47 61 55 64 76 42 36 39 41 39 40 38 28 21 23 19 20 19 20 24 31 41 52 70 84 89 94 99 100 100 100 100 100 100 100 100 94 85
62 62 69 78 55 56 40 31 25 38 58 34 32 33 42 36 35 36 38 32 32 35 29 28 34 44 51 69 83 90 90 93 95 96 99 99 99 98 97 95 92 91 98 99
62 67 69 73 56 47 45 44 40 47 40 35 40 35 39 42 36 36 38 39 34 34 41 45 48 62 71 76 85 92 94 89 89 92 92 92 94 97 100 100 100 100 100 100
85 93 94 94 86 97 68 66 58 46 41 43 43 37 37 44 40 38 38 45 45 52 56 57 61 68 71 76 80 83 85 83 82 86 89 92 98 100 100 100 98 99 100 100

GFSCGP_850_rhum_060.txt.gz
RH
35 43 46 34 34 29 29 32 34 32 28 29 35 48 39 56 95 84 80 86 92 87 79 89 91 100 96 97 99 100 99 100 87 98 72 93 85 80 67 57 57 55 63 56
37 44 34 30 33 32 33 35 38 34 30 34 37 42 44 66 78 77 70 72 79 92 81 93 96 99 97 92 96 98 100 100 87 78 97 74 78 68 57 67 64 67 56 67
41 36 28 32 38 38 39 41 40 38 36 31 40 44 40 47 60 68 75 66 70 79 80 84 96 99 91 98 96 94 96 100 100 83 90 93 83 72 65 80 63 54 55 75
40 33 32 34 35 34 41 35 34 37 36 45 35 58 34 36 56 70 69 76 70 70 81 76 73 75 77 86 98 97 97 99 98 99 82 83 72 74 80 67 57 63 54 76
44 43 37 38 36 32 31 34 38 38 42 38 38 45 39 59 45 49 64 59 57 57 65 70 65 54 55 64 86 99 100 97 96 95 88 77 83 86 91 66 55 54 60 62
35 31 35 31 30 32 29 32 36 47 48 59 44 43 49 40 41 38 42 45 40 50 58 64 67 58 54 53 67 85 93 96 100 92 78 79 80 75 81 74 69 66 55 54
33 37 28 25 32 34 33 40 55 55 67 66 44 50 41 35 34 40 37 37 36 40 49 54 65 56 49 46 44 59 77 90 98 94 87 86 73 69 66 62 57 59 56 56
39 42 33 28 32 36 41 41 63 60 68 53 52 62 42 33 31 26 28 31 36 45 47 45 48 50 45 40 39 42 54 71 83 87 87 81 78 73 68 62 56 52 50 57
44 40 29 30 29 27 36 46 38 62 73 79 60 46 36 29 29 28 40 43 42 40 42 40 43 49 46 45 38 36 41 47 62 66 66 66 66 69 71 70 69 67 61 60
42 45 34 28 26 28 32 36 52 63 75 78 59 58 44 33 31 30 33 49 41 40 41 44 42 40 43 46 45 39 36 35 40 44 53 56 57 60 63 63 63 60 55 48
35 40 39 30 35 36 36 40 42 51 64 60 62 60 47 36 34 37 31 26 28 35 33 34 36 34 37 44 47 47 42 40 34 37 38 39 37 37 41 43 44 44 47 49
39 46 51 36 31 29 30 40 41 57 54 70 72 45 30 36 34 36 33 22 17 18 22 28 33 43 43 46 46 47 49 46 43 36 35 37 41 39 36 37 40 46 50 54
53 53 60 53 38 34 36 35 36 51 56 66 64 52 34 35 34 30 27 20 21 20 18 24 32 31 34 40 44 46 45 41 46 50 47 44 39 38 42 47 45 47 50 53
66 60 59 62 51 40 41 38 34 44 63 56 64 43 34 36 36 30 27 22 21 21 20 20 25 25 26 30 32 35 35 38 47 50 52 52 51 50 46 49 53 55 58 60
67 73 81 72 59 51 42 38 38 42 44 50 39 50 38 35 35 32 20 19 21 21 20 18 22 22 23 27 28 30 30 30 38 48 54 53 52 54 58 61 62 65 68 72
66 75 80 66 66 62 60 40 38 39 40 44 43 45 36 32 29 30 25 24 26 22 20 18 16 21 23 22 22 22 23 27 31 35 35 40 59 63 61 61 66 71 70 78
78 82 89 84 78 70 64 47 45 39 37 39 44 42 35 36 39 36 27 24 22 22 21 20 19 15 16 20 19 22 20 29 32 31 34 42 51 65 70 73 74 81 85 89
83 86 98 98 75 92 57 42 46 46 41 39 39 36 33 34 25 26 21 18 22 21 17 20 20 18 16 20 22 21 24 28 30 32 35 39 48 61 75 81 85 94 99 100
85 89 98 98 86 66 52 40 48 61 56 39 40 35 32 25 24 24 19 18 18 18 16 16 21 19 15 17 20 27 28 30 35 38 42 44 48 61 70 85 92 100 99 100
91 80 82 98 95 85 53 58 59 62 56 53 51 44 41 32 46 40 17 17 17 17 17 16 16 20 21 17 18 22 35 36 40 46 48 49 60 73 80 97 100 97 100 100
93 99 90 91 80 82 66 63 61 71 53 78 74 68 54 52 46 33 31 25 23 23 19 17 17 16 17 18 19 24 35 40 46 52 58 69 83 99 100 98 100 100 100 100
81 94 99 96 99 92 57 63 66 64 65 65 61 68 64 52 40 36 36 31 29 26 21 22 18 23 24 25 29 32 35 45 60 68 77 88 89 96 99 100 99 100 100 100
73 76 87 83 85 62 59 49 34 46 55 49 54 44 50 60 49 43 38 39 37 30 33 32 28 37 28 36 39 41 50 65 78 87 92 95 93 100 100 100 100 100 100 100
59 65 73 68 52 62 52 50 58 58 50 41 38 40 43 57 50 42 44 39 44 48 52 50 62 50 46 41 52 61 76 85 93 94 96 97 100 100 100 100 100 100 100 100
59 67 69 75 73 72 62 65 85 72 72 64 42 45 50 56 53 43 46 45 42 49 58 63 66 75 57 45 76 94 94 96 95 93 94 98 100 100 100 99 99 98 94 93
95 87 89 85 92 96 90 87 81 77 85 79 71 64 62 53 55 44 64 56 50 49 52 62 72 83 85 88 94 99 100 99 99 96 98 100 99 98 96 96 96 98 99 100

GFSCGP_850_rhum_063.txt.gz
RH
41 40 38 27 30 27 28 29 29 25 22 26 30 32 26 38 76 76 79 87 100 100 83 81 89 93 98 100 100 100 100 100 98 87 90 77 65 66 76 76 60 66 55 62
40 46 34 30 30 27 28 30 30 27 27 27 27 28 24 39 48 63 65 76 91 98 89 90 97 99 98 100 100 100 100 100 100 98 98 88 86 67 60 69 74 58 62 62
37 31 32 31 34 33 33 33 34 28 30 28 33 31 27 30 50 62 66 64 76 77 82 78 76 91 100 95 97 98 99 99 100 100 100 84 87 90 62 72 65 57 64 60
30 29 34 33 33 30 36 31 29 31 29 35 30 38 30 24 31 47 51 69 75 86 85 78 77 76 95 95 94 93 96 100 100 99 93 74 90 62 80 78 78 69 64 63
38 40 35 35 29 30 25 31 32 32 34 39 36 36 29 34 29 24 31 54 65 62 68 67 61 52 50 91 98 95 90 96 100 100 90 95 61 76 78 66 67 65 74 72
30 35 30 24 31 29 28 31 38 43 42 52 36 35 29 30 26 25 27 39 57 59 60 66 62 58 48 54 83 92 96 97 98 100 88 89 65 79 76 79 62 75 63 56
38 34 30 30 33 32 30 34 45 53 58 50 40 40 28 26 24 27 27 27 40 51 53 68 70 66 55 47 62 87 88 86 90 97 90 93 74 87 71 61 60 75 63 58
44 46 34 31 33 35 35 31 48 53 55 42 46 44 27 28 27 29 29 31 36 42 44 49 56 57 47 43 47 56 66 77 83 91 91 94 87 82 69 63 60 74 64 59
41 38 28 31 30 30 39 41 32 53 66 58 44 41 30 24 22 24 25 40 47 61 48 41 49 53 53 43 36 35 47 57 69 72 80 84 79 76 73 78 88 79 72 64
40 46 33 27 26 28 31 32 40 50 52 59 48 48 33 27 24 24 28 28 42 51 52 49 45 44 49 47 42 35 33 34 41 55 64 65 69 73 72 73 70 72 72 68
39 37 38 35 33 34 34 36 42 40 50 47 47 41 41 30 29 29 32 30 25 32 41 41 41 46 48 50 48 45 37 33 33 38 44 54 56 61 65 65 64 65 66 64
37 47 49 40 31 28 29 33 36 46 53 59 58 38 29 32 31 34 30 25 20 16 20 31 39 41 45 47 50 49 49 41 35 31 33 35 40 50 58 52 44 52 50 51
62 51 53 45 36 34 33 32 38 47 51 46 57 40 30 32 29 30 31 24 21 19 21 21 30 35 37 42 44 44 47 47 46 41 37 33 35 39 38 39 42 47 44 42
65 67 58 52 55 53 46 37 33 36 57 47 48 37 31 30 29 24 27 20 21 19 20 22 20 20 23 27 32 37 40 46 50 51 48 45 41 36 32 33 35 38 39 40
68 76 73 68 58 58 56 50 40 38 37 42 36 39 31 33 29 25 29 25 24 21 22 22 21 18 19 24 24 23 25 31 39 48 52 49 50 50 48 44 40 37 40 42
52 73 76 66 57 53 56 49 43 39 38 39 38 37 30 26 29 31 29 27 26 21 19 19 21 21 19 19 22 21 21 19 25 30 29 39 50 51 54 56 54 55 56 55
63 78 76 64 72 58 64 52 45 43 39 39 46 36 30 29 33 35 29 29 27 23 21 20 20 21 20 19 17 20 19 22 21 24 25 31 37 44 48 57 64 64 63 66
63 83 87 76 72 61 49 48 42 47 42 41 39 42 37 35 33 30 28 24 21 20 17 19 16 15 18 20 21 18 21 23 23 25 24 29 34 42 52 64 71 74 81 83
62 65 95 83 66 53 35 47 56 59 47 67 63 61 57 52 38 31 28 27 25 24 22 21 18 16 15 16 18 19 20 27 28 29 31 35 41 46 56 66 82 86 93 100
69 69 90 94 91 73 49 51 58 60 54 64 61 60 62 56 60 47 47 44 35 30 23 23 24 20 18 17 20 20 18 21 30 31 32 40 46 56 60 69 90 99 100 100
88 90 95 98 85 65 54 55 62 50 47 56 67 62 60 58 56 58 52 43 43 38 32 28 24 20 24 20 19 21 22 27 43 48 51 53 60 74 79 94 100 100 100 100
79 82 85 83 93 82 53 58 58 53 53 58 57 59 52 44 40 46 51 48 43 43 43 38 29 27 24 23 34 27 35 43 57 64 67 71 77 86 100 99 98 98 99 100
63 72 77 75 72 59 62 64 65 74 78 75 74 64 54 50 46 47 53 54 47 45 51 59 60 69 52 57 66 51 62 78 74 83 96 98 100 100 100 100 98 100 99 100
56 64 70 65 49 59 64 72 82 75 85 83 74 70 68 60 58 58 61 59 52 48 50 54 71 84 81 79 84 82 81 88 100 100 100 100 99 100 100 100 99 100 100 100
51 64 64 67 60 68 81 98 89 78 76 73 68 72 80 76 72 71 73 66 66 56 53 67 61 76 96 99 100 100 100 100 99 100 100 98 100 100 100 99 99 100 100 100
80 79 78 69 92 91 88 93 97 90 86 85 79 68 73 78 75 91 88 77 74 79 66 68 90 68 83 99 100 99 100 100 100 94 100 100 99 100 100 100 98 99 100 100

GFSCGP_850_rhum_066.txt.gz
RH
35 31 32 22 21 16 14 16 16 12 13 17 15 15 15 15 26 36 37 44 58 65 74 82 78 93 98 98 100 100 97 100 100 98 97 87 91 97 78 88 81 48 48 54
36 41 24 20 18 20 17 18 17 13 17 18 12 16 15 13 18 22 32 39 47 66 77 84 93 99 100 99 99 98 99 100 100 92 92 96 80 93 82 71 84 66 52 58
31 25 26 25 23 23 19 19 18 17 19 17 20 20 17 13 20 27 33 33 42 57 68 83 88 94 95 100 99 99 98 99 99 99 98 100 85 91 87 73 64 59 61 56
24 17 25 27 28 21 23 16 18 20 22 16 22 25 16 15 15 17 21 36 38 51 63 73 79 87 96 94 99 100 99 99 96 100 98 88 82 79 94 84 66 55 56 74
29 22 22 26 22 19 22 16 22 21 22 20 17 26 15 16 18 14 13 21 36 47 59 67 73 76 84 96 93 98 99 100 99 99 97 91 78 76 93 95 80 59 65 81
38 24 21 19 18 20 20 22 23 23 21 32 22 26 19 15 17 14 14 18 28 42 56 62 70 74 76 93 98 100 99 99 99 99 99 99 97 96 93 90 75 73 78 82
44 28 24 21 20 21 22 24 34 36 39 32 22 28 22 15 14 16 17 17 25 38 52 60 67 72 71 84 95 99 100 100 94 98 99 99 94 80 96 69 56 78 76 72
38 46 27 26 23 27 25 24 30 39 38 31 27 32 22 15 14 18 18 18 23 35 48 56 60 68 71 78 88 97 96 96 99 92 99 99 89 80 85 58 77 79 75 74
36 38 25 25 24 22 28 32 21 33 41 34 29 24 21 16 15 14 16 20 26 30 42 52 59 66 71 76 79 86 90 88 97 97 85 95 96 92 87 81 76 75 65 65
27 36 25 24 25 23 26 22 35 33 44 46 30 30 26 19 16 14 18 19 24 35 41 48 56 68 72 75 71 79 82 83 90 96 96 96 98 98 92 90 87 79 75 73
30 32 34 24 33 27 29 31 30 26 28 38 40 31 23 20 17 18 18 19 22 30 40 47 53 62 71 75 69 62 68 77 82 90 95 96 94 96 96 94 92 86 81 79
31 38 37 31 23 19 20 25 27 35 39 35 37 31 22 22 19 21 19 18 21 21 28 40 50 57 67 73 75 75 71 80 75 78 86 90 96 95 91 83 78 83 74 80
47 36 37 34 29 27 28 24 24 25 28 37 51 32 19 24 20 17 20 17 18 22 25 32 44 52 59 66 71 73 61 48 65 76 76 80 75 78 66 62 66 81 88 89
49 48 37 31 29 34 34 28 25 30 40 35 30 26 22 20 19 17 17 18 20 22 22 28 38 45 52 58 65 70 73 66 68 70 76 77 58 46 58 62 63 67 64 66
47 86 63 52 51 47 46 44 34 29 28 34 28 27 23 20 19 19 21 21 21 21 23 24 27 34 42 52 59 65 67 64 65 78 73 49 43 45 52 54 50 57 64 68
43 78 58 51 43 44 47 39 37 33 31 31 30 30 21 21 22 23 23 22 20 22 23 23 23 24 29 40 49 58 60 60 51 52 40 59 66 60 48 49 50 51 52 53
51 64 62 57 42 38 48 42 37 36 32 32 37 31 27 27 27 27 25 28 26 24 24 25 27 28 27 29 25 35 30 51 43 28 41 54 70 72 68 58 61 60 61 72
48 72 57 62 60 67 44 35 32 35 37 34 35 41 39 39 38 34 41 42 40 34 34 27 27 29 29 23 29 30 46 40 27 27 42 47 52 53 73 79 77 81 86 85
47 52 77 56 52 38 28 37 37 35 50 39 38 39 40 39 36 37 47 50 52 47 42 36 33 34 30 23 22 23 41 48 53 30 30 44 58 58 57 58 78 92 97 99
45 47 58 75 58 45 31 44 45 45 36 31 40 38 37 39 51 36 45 51 50 51 50 40 36 40 36 32 32 28 27 47 53 58 63 68 71 68 68 74 75 78 88 93
73 67 69 69 64 42 34 44 51 39 44 40 38 36 39 38 37 45 50 50 51 55 57 44 63 44 34 31 36 37 47 54 58 64 62 78 79 80 92 93 82 84 94 98
62 62 69 60 68 76 47 38 40 52 46 54 53 53 61 61 55 46 45 50 54 59 66 46 62 69 53 51 61 67 83 66 67 58 59 62 73 76 80 89 97 99 100 100
58 44 52 46 48 51 53 50 68 74 71 72 71 68 71 65 62 60 53 56 64 68 75 84 57 82 80 86 96 99 80 86 98 99 96 93 94 100 100 100 99 99 99 100
38 43 46 44 39 42 54 67 72 73 76 75 74 73 72 73 70 70 71 75 78 78 85 91 92 61 82 94 99 100 100 100 100 99 98 100 100 100 100 100 100 100 100 100
37 42 38 39 34 49 70 73 83 81 79 80 79 79 78 78 75 81 83 84 86 87 86 98 100 97 84 86 96 100 100 99 100 100 100 100 100 100 100 100 99 100 100 100
44 43 51 48 78 83 73 81 90 90 88 89 86 84 83 85 84 88 91 99 100 100 87 88 98 99 98 90 89 93 98 99 100 100 100 100 100 99 100 99 99 100 100 100

GFSCGP_850_rhum_069.txt.gz
RH
16 24 29 24 22 18 15 14 15 14 10 13 14 12 11 10 13 17 21 23 31 40 43 53 70 84 98 88 100 98 98 100 98 99 99 99 100 99 100 81 57 54 80 86
15 23 19 18 19 19 17 16 16 13 11 13 13 11 9 9 10 13 17 21 25 39 44 56 70 85 100 91 86 96 98 100 98 100 98 99 98 97 88 77 66 85 81 71
34 16 19 22 22 22 20 21 19 17 13 15 15 15 12 10 10 11 14 16 20 31 44 54 64 76 95 98 92 99 95 100 98 100 99 99 98 96 92 78 78 79 92 80
42 20 22 26 27 21 24 16 16 16 17 21 13 18 14 11 12 12 14 17 18 27 42 49 60 68 85 96 98 98 99 98 100 99 100 98 98 97 85 69 68 84 68 56
64 35 23 28 26 21 24 17 16 17 20 20 18 17 14 12 11 11 10 13 20 24 38 46 56 60 70 93 97 98 99 100 99 100 99 91 86 96 97 86 72 92 88 69
54 40 39 23 17 19 16 19 19 20 22 31 22 20 18 14 12 12 10 11 18 24 34 43 50 56 58 84 98 98 98 97 99 99 100 95 90 97 89 89 86 80 78 70
55 48 35 31 20 21 18 23 32 36 35 36 18 20 18 12 11 12 12 12 17 22 32 42 46 53 54 68 88 99 99 98 99 97 95 98 99 94 82 94 99 83 67 64
86 74 38 26 22 23 22 23 32 44 42 30 19 25 19 13 11 13 14 14 15 21 32 40 43 49 52 62 76 86 95 100 98 100 99 92 97 98 82 88 95 86 62 54
56 52 32 36 22 22 24 27 19 26 34 36 24 21 17 15 13 12 12 15 17 20 29 38 42 47 52 58 71 81 83 83 99 98 99 98 99 97 97 97 94 90 66 66
49 51 34 44 28 26 29 20 30 25 49 52 32 26 23 18 15 13 14 16 18 21 26 35 40 48 52 56 63 76 81 76 80 99 97 97 98 98 100 100 94 87 65 55
32 34 44 33 47 36 30 28 26 24 28 39 42 33 18 18 17 15 16 16 19 26 27 33 38 45 51 56 60 69 76 72 72 83 93 99 98 96 97 96 91 90 85 61
28 34 50 39 28 29 27 27 28 36 37 30 37 40 17 17 16 16 16 16 17 18 28 32 37 42 52 56 61 63 69 70 69 75 82 90 95 98 94 90 92 87 86 86
69 45 48 49 41 24 34 30 25 27 33 61 53 33 18 18 17 16 15 15 16 18 20 25 35 40 47 54 58 61 66 67 66 70 76 84 89 90 90 91 91 90 88 88
52 57 53 49 41 28 32 26 24 28 42 37 39 31 21 18 18 17 16 16 17 18 19 21 27 35 41 48 55 58 62 68 67 67 69 75 83 82 82 87 91 90 89 90
53 89 71 38 46 34 32 29 26 27 28 34 29 25 19 18 18 17 19 20 19 17 17 18 20 26 34 42 49 55 58 65 70 68 67 68 72 77 84 87 89 86 87 89
58 81 96 62 36 38 37 31 29 28 29 29 28 29 20 18 20 22 22 21 20 19 20 21 22 21 21 29 40 46 54 60 68 72 69 68 72 77 80 85 87 89 87 82
52 77 92 92 60 48 53 41 38 38 31 32 36 33 30 25 27 28 30 30 37 35 29 28 27 23 25 25 26 38 46 54 61 69 69 70 72 75 78 85 85 81 78 85
51 62 68 92 77 81 54 30 31 40 36 30 33 29 28 27 27 33 39 42 44 45 45 40 34 31 29 33 29 30 33 45 55 61 67 68 71 72 75 80 84 86 89 88
42 51 71 77 79 74 36 41 44 55 49 30 34 31 28 26 28 35 40 44 44 44 47 53 55 53 49 48 50 40 32 32 42 55 62 63 66 70 73 75 78 82 87 88
38 44 60 65 88 76 46 38 40 30 63 29 30 31 30 27 31 25 35 43 44 42 49 62 65 71 80 78 58 59 52 40 37 38 50 59 62 66 70 74 78 83 88 91
55 55 60 63 55 36 32 35 38 51 71 38 38 40 44 42 41 43 41 40 41 47 51 63 70 83 94 76 69 81 73 61 54 51 52 56 60 65 70 75 80 88 94 96
52 58 59 52 55 58 37 34 47 53 46 50 47 50 53 53 52 54 52 46 46 51 57 65 72 87 90 92 95 93 80 85 73 72 65 68 75 76 79 84 87 95 100 100
53 38 45 39 42 42 46 56 58 59 57 58 59 58 60 58 58 59 60 58 64 59 64 71 76 88 83 95 100 100 100 100 99 100 97 84 91 97 97 99 99 100 100 100
34 39 44 47 41 50 54 57 62 62 64 64 64 65 66 68 65 65 65 67 67 69 76 80 84 91 79 94 98 99 100 100 99 99 100 100 100 100 100 100 100 100 100 100
45 35 31 32 41 45 53 65 73 70 71 71 72 72 72 72 71 74 72 79 82 84 91 96 100 100 99 99 99 93 89 96 100 99 99 100 100 100 100 100 100 100 100 100
29 45 42 58 64 60 58 73 79 75 78 80 78 77 77 78 78 80 83 94 98 100 100 100 99 100 100 100 100 100 98 92 84 92 94 97 100 100 100 100 100 100 100 100

GFSCGP_850_rhum_072.txt.gz
RH
21 29 33 28 25 25 22 20 18 13 11 13 14 13 11 10 11 15 16 18 22 33 38 44 58 71 86 100 100 99 82 94 100 100 98 99 94 100 99 97 95 86 72 72
40 37 33 24 22 22 23 26 23 15 12 13 13 14 11 10 10 11 15 17 19 30 37 46 63 75 86 96 99 89 91 89 99 98 98 99 93 100 98 97 87 91 88 82
65 43 27 31 19 25 25 26 25 20 14 13 13 16 15 11 9 9 10 13 17 28 36 46 62 76 87 85 99 92 99 91 99 99 99 100 100 100 100 98 87 84 79 88
80 66 34 49 44 20 28 21 21 20 21 25 15 23 16 13 12 10 11 13 14 18 36 44 56 71 83 90 96 100 100 92 99 100 99 98 97 97 95 87 86 75 65 54
66 66 53 53 43 23 28 27 31 21 22 24 19 22 18 12 13 12 12 13 15 15 35 41 52 63 77 84 100 99 96 92 98 99 98 98 99 99 89 70 61 53 67 80
50 46 59 62 46 30 26 32 44 29 26 35 23 24 22 17 14 11 11 10 15 18 33 39 48 56 68 82 94 99 99 98 97 99 100 95 91 96 94 81 62 78 87 76
56 52 55 52 59 38 35 59 76 56 44 43 22 24 22 15 12 11 11 10 14 19 29 37 48 53 59 77 71 98 99 100 99 98 99 98 96 95 94 82 62 65 89 84
76 81 56 55 52 55 38 50 49 64 53 38 22 27 20 13 10 11 12 11 14 18 25 36 44 49 52 69 78 84 96 98 99 99 98 96 100 92 99 90 81 66 66 75
71 63 42 48 49 53 53 47 32 39 40 50 30 20 18 13 12 12 12 13 14 15 26 34 40 46 50 59 76 84 90 94 98 98 98 99 99 97 99 95 84 86 74 57
54 90 48 49 43 55 56 42 57 36 60 81 40 32 25 20 16 13 13 16 17 17 22 32 38 44 49 53 64 78 85 91 92 95 97 98 100 98 98 96 92 97 87 70
49 84 60 64 79 66 53 41 42 34 33 55 60 42 44 25 16 16 18 17 19 22 22 31 36 43 47 51 58 67 78 80 84 86 87 96 99 98 98 94 90 89 96 93
63 71 67 50 32 46 41 47 39 52 53 36 48 41 28 21 17 18 16 15 18 19 26 30 34 41 46 50 55 60 68 72 75 77 80 82 90 99 98 97 92 91 86 86
66 71 62 55 39 59 62 53 50 45 52 58 75 39 24 20 18 16 16 16 17 18 22 29 33 38 46 49 54 58 66 70 72 73 78 83 81 78 89 89 89 90 92 89
70 69 69 67 69 77 68 48 45 51 78 64 66 41 39 26 19 17 17 18 19 20 20 20 28 34 40 48 53 57 60 64 67 69 72 77 80 65 70 84 90 92 93 97
80 100 91 84 69 66 72 55 51 52 48 52 41 43 38 38 31 20 21 20 20 19 24 20 22 25 32 39 47 54 58 60 64 67 67 72 76 81 84 83 86 92 88 92
64 87 80 70 54 57 93 48 47 55 46 36 28 37 27 23 24 28 35 37 38 38 36 31 28 26 24 30 38 44 51 58 62 63 64 66 70 77 83 87 90 94 94 92
55 76 98 93 87 74 62 58 51 43 35 39 51 53 32 30 27 37 41 43 44 44 44 46 44 39 35 32 34 33 43 49 56 61 64 67 68 69 76 85 88 84 86 88
52 67 89 95 86 85 53 56 46 51 56 52 48 43 33 27 32 37 42 43 44 45 48 57 58 59 57 53 46 41 34 34 49 53 60 68 72 72 72 77 84 86 92 92
46 55 82 97 85 79 51 67 76 49 73 66 52 40 28 24 38 37 36 40 42 42 48 61 70 76 62 56 52 50 53 53 38 50 56 59 66 71 72 74 75 82 88 93
40 52 69 86 87 91 56 62 68 72 99 57 49 41 42 34 54 48 44 39 37 43 54 63 77 75 58 62 70 83 77 66 52 44 40 51 61 62 66 70 73 76 82 87
61 66 76 77 88 48 35 57 66 88 87 62 51 47 50 52 50 50 51 48 48 49 58 64 80 88 73 72 75 78 81 76 82 78 56 56 61 68 68 67 68 74 77 83
59 69 75 62 65 67 46 51 60 66 63 50 50 55 54 53 52 53 57 62 59 62 66 71 81 93 91 98 95 97 96 100 100 99 89 71 76 72 74 76 74 74 77 78
56 46 57 45 50 54 55 56 56 57 58 59 58 59 60 60 60 61 61 66 66 69 76 82 86 93 97 100 100 99 99 95 96 98 98 100 99 99 100 99 96 96 92 97
54 49 67 52 63 61 57 58 60 63 63 64 64 67 68 67 67 67 71 77 78 82 88 94 99 100 100 99 100 100 98 96 87 78 85 81 92 99 99 99 100 100 100 100
50 48 41 79 84 88 69 67 66 68 70 70 70 71 73 72 74 74 81 87 92 97 99 99 99 100 100 99 98 99 100 100 100 92 84 78 82 87 96 98 98 99 100 100
60 68 71 98 68 84 74 75 72 74 77 77 78 80 83 86 83 82 91 99 100 100 100 99 99 99 99 99 99 99 99 99 99 100 97 98 96 92 92 90 86 89 96 100